Wetterdaten: Dienstag, 22.11.2022
Datum Zeit Temp. Aussen Temp. o. S. Temp +5cm Feuchte Auss Luftdruck Regen Sonnenschein Regendauer Solar Windben Empfang
22.11.2022 00:00 6,7 C 6,1 C 2,8 C 92 % 992,7 hPa 0,0 l/m 0 min 0 min 0 W/m 16,1 km/h (3 Bft) 97,83 %
22.11.2022 00:02 6,7 C 6,1 C 2,8 C 92 % 992,7 hPa 0,0 l/m 0 min 0 min 0 W/m 16,1 km/h (3 Bft) 97,56 %
22.11.2022 00:04 6,6 C 6,1 C 2,8 C 93 % 992,7 hPa 0,0 l/m 0 min 0 min 0 W/m 12,9 km/h (3 Bft) 98,04 %
22.11.2022 00:07 6,6 C 6,1 C 2,8 C 92 % 992,7 hPa 0,0 l/m 0 min 0 min 0 W/m 19,3 km/h (3 Bft) 100,00 %
22.11.2022 00:08 6,6 C 6,1 C 2,8 C 92 % 992,7 hPa 0,0 l/m 0 min 0 min 0 W/m 16,1 km/h (3 Bft) 100,00 %
22.11.2022 00:14 6,6 C 6,1 C 2,8 C 93 % 992,8 hPa 0,0 l/m 0 min 0 min 0 W/m 22,5 km/h (4 Bft) 97,56 %
22.11.2022 00:16 6,6 C 6,1 C 2,8 C 93 % 992,7 hPa 0,0 l/m 0 min 0 min 0 W/m 16,1 km/h (3 Bft) 95,74 %
22.11.2022 00:18 6,6 C 6,1 C 2,8 C 93 % 992,8 hPa 0,0 l/m 0 min 0 min 0 W/m 12,9 km/h (3 Bft) 100,00 %
22.11.2022 00:20 6,6 C 6,1 C 2,8 C 93 % 992,7 hPa 0,0 l/m 0 min 0 min 0 W/m 19,3 km/h (3 Bft) 100,00 %
22.11.2022 00:22 6,6 C 6,1 C 2,8 C 93 % 992,7 hPa 0,0 l/m 0 min 0 min 0 W/m 12,9 km/h (3 Bft) 100,00 %
22.11.2022 00:24 6,6 C 6,1 C 2,8 C 93 % 992,7 hPa 0,0 l/m 0 min 0 min 0 W/m 29,0 km/h (5 Bft) 100,00 %
22.11.2022 00:26 6,6 C 6,1 C 2,8 C 93 % 992,5 hPa 0,0 l/m 0 min 0 min 0 W/m 12,9 km/h (3 Bft) 95,74 %
22.11.2022 00:28 6,6 C 6,1 C 2,8 C 93 % 992,6 hPa 0,0 l/m 0 min 0 min 0 W/m 19,3 km/h (3 Bft) 100,00 %
22.11.2022 00:30 6,6 C 6,1 C 2,8 C 93 % 992,5 hPa 0,0 l/m 0 min 0 min 0 W/m 16,1 km/h (3 Bft) 100,00 %
22.11.2022 00:32 6,7 C 6,1 C 2,8 C 93 % 992,5 hPa 0,0 l/m 0 min 0 min 0 W/m 16,1 km/h (3 Bft) 100,00 %
22.11.2022 00:34 6,7 C 6,1 C 2,8 C 93 % 992,5 hPa 0,0 l/m 0 min 0 min 0 W/m 19,3 km/h (3 Bft) 100,00 %
22.11.2022 00:36 6,7 C 6,1 C 2,8 C 93 % 992,5 hPa 0,0 l/m 0 min 2 min 0 W/m 22,5 km/h (4 Bft) 100,00 %
22.11.2022 00:38 6,7 C 6,1 C 2,8 C 92 % 992,6 hPa 0,0 l/m 0 min 2 min 0 W/m 22,5 km/h (4 Bft) 95,74 %
22.11.2022 00:40 6,7 C 6,1 C 2,8 C 92 % 992,5 hPa 0,0 l/m 0 min 2 min 0 W/m 25,7 km/h (4 Bft) 97,87 %
22.11.2022 00:42 6,7 C 6,1 C 2,8 C 92 % 992,5 hPa 0,0 l/m 0 min 2 min 0 W/m 12,9 km/h (3 Bft) 95,74 %
22.11.2022 00:44 6,7 C 6,1 C 2,8 C 92 % 992,5 hPa 0,2 l/m 0 min 2 min 0 W/m 19,3 km/h (3 Bft) 95,74 %
22.11.2022 00:46 6,7 C 6,1 C 2,8 C 92 % 992,5 hPa 0,0 l/m 0 min 2 min 0 W/m 19,3 km/h (3 Bft) 97,83 %
22.11.2022 00:48 6,7 C 6,1 C 2,8 C 93 % 992,5 hPa 0,0 l/m 0 min 2 min 0 W/m 25,7 km/h (4 Bft) 97,87 %
22.11.2022 00:50 6,7 C 6,1 C 2,8 C 93 % 992,6 hPa 0,0 l/m 0 min 2 min 0 W/m 22,5 km/h (4 Bft) 95,74 %
22.11.2022 00:52 6,7 C 5,6 C 2,8 C 93 % 992,6 hPa 0,0 l/m 0 min 2 min 0 W/m 22,5 km/h (4 Bft) 93,62 %
22.11.2022 00:54 6,7 C 5,6 C 2,8 C 93 % 992,6 hPa 0,0 l/m 0 min 2 min 0 W/m 25,7 km/h (4 Bft) 93,62 %
22.11.2022 00:56 6,7 C 5,6 C 2,8 C 93 % 992,5 hPa 0,2 l/m 0 min 2 min 0 W/m 19,3 km/h (3 Bft) 95,65 %
22.11.2022 00:58 6,6 C 5,6 C 2,8 C 93 % 992,5 hPa 0,0 l/m 0 min 2 min 0 W/m 22,5 km/h (4 Bft) 95,74 %
22.11.2022 01:00 6,6 C 5,6 C 2,8 C 93 % 992,4 hPa 0,0 l/m 0 min 2 min 0 W/m 22,5 km/h (4 Bft) 95,74 %
22.11.2022 01:02 6,6 C 5,6 C 2,8 C 93 % 992,5 hPa 0,0 l/m 0 min 2 min 0 W/m 22,5 km/h (4 Bft) 95,74 %
22.11.2022 01:04 6,6 C 5,6 C 2,8 C 93 % 992,5 hPa 0,0 l/m 0 min 2 min 0 W/m 19,3 km/h (3 Bft) 93,62 %
22.11.2022 01:06 6,6 C 5,6 C 2,8 C 93 % 992,6 hPa 0,0 l/m 0 min 2 min 0 W/m 25,7 km/h (4 Bft) 93,62 %
22.11.2022 01:08 6,6 C 5,6 C 2,8 C 93 % 992,6 hPa 0,0 l/m 0 min 2 min 0 W/m 19,3 km/h (3 Bft) 91,49 %
22.11.2022 01:10 6,6 C 5,6 C 2,8 C 93 % 992,5 hPa 0,0 l/m 0 min 2 min 0 W/m 19,3 km/h (3 Bft) 93,48 %
22.11.2022 01:12 6,6 C 5,6 C 2,8 C 94 % 992,7 hPa 0,2 l/m 0 min 2 min 0 W/m 22,5 km/h (4 Bft) 89,36 %
22.11.2022 01:14 6,6 C 5,6 C 2,8 C 93 % 992,7 hPa 0,0 l/m 0 min 2 min 0 W/m 9,7 km/h (2 Bft) 91,49 %
22.11.2022 01:16 6,6 C 5,6 C 2,8 C 94 % 992,7 hPa 0,0 l/m 0 min 2 min 0 W/m 19,3 km/h (3 Bft) 91,49 %
22.11.2022 01:18 6,6 C 5,6 C 2,8 C 94 % 992,7 hPa 0,0 l/m 0 min 2 min 0 W/m 12,9 km/h (3 Bft) 91,49 %
22.11.2022 01:20 6,5 C 5,6 C 2,8 C 94 % 992,6 hPa 0,0 l/m 0 min 2 min 0 W/m 9,7 km/h (2 Bft) 93,62 %
22.11.2022 01:22 6,5 C 5,6 C 2,8 C 94 % 992,6 hPa 0,0 l/m 0 min 0 min 0 W/m 12,9 km/h (3 Bft) 93,48 %
22.11.2022 01:24 6,5 C 5,6 C 2,8 C 94 % 992,6 hPa 0,0 l/m 0 min 2 min 0 W/m 16,1 km/h (3 Bft) 91,49 %
22.11.2022 01:26 6,5 C 5,6 C 2,8 C 94 % 992,6 hPa 0,0 l/m 0 min 2 min 0 W/m 12,9 km/h (3 Bft) 95,74 %
22.11.2022 01:28 6,5 C 5,6 C 2,8 C 94 % 992,7 hPa 0,0 l/m 0 min 0 min 0 W/m 16,1 km/h (3 Bft) 91,49 %
22.11.2022 01:30 6,5 C 5,6 C 2,8 C 94 % 992,7 hPa 0,0 l/m 0 min 0 min 0 W/m 19,3 km/h (3 Bft) 89,36 %
22.11.2022 01:32 6,5 C 5,6 C 2,8 C 94 % 992,7 hPa 0,0 l/m 0 min 0 min 0 W/m 12,9 km/h (3 Bft) 95,65 %
22.11.2022 01:34 6,5 C 5,6 C 2,8 C 94 % 992,7 hPa 0,0 l/m 0 min 0 min 0 W/m 12,9 km/h (3 Bft) 97,87 %
22.11.2022 01:36 6,5 C 5,6 C 2,8 C 94 % 992,7 hPa 0,0 l/m 0 min 0 min 0 W/m 16,1 km/h (3 Bft) 97,87 %
22.11.2022 01:38 6,5 C 5,6 C 2,8 C 94 % 992,8 hPa 0,0 l/m 0 min 0 min 0 W/m 19,3 km/h (3 Bft) 100,00 %
22.11.2022 01:40 6,5 C 5,6 C 2,8 C 94 % 992,8 hPa 0,0 l/m 0 min 0 min 0 W/m 16,1 km/h (3 Bft) 95,74 %
22.11.2022 01:42 6,5 C 5,6 C 2,8 C 95 % 992,8 hPa 0,0 l/m 0 min 0 min 0 W/m 16,1 km/h (3 Bft) 97,87 %
22.11.2022 01:44 6,4 C 5,6 C 2,8 C 95 % 992,7 hPa 0,0 l/m 0 min 0 min 0 W/m 19,3 km/h (3 Bft) 100,00 %
22.11.2022 01:46 6,4 C 5,6 C 2,8 C 94 % 992,7 hPa 0,0 l/m 0 min 2 min 0 W/m 19,3 km/h (3 Bft) 100,00 %
22.11.2022 01:48 6,4 C 5,6 C 2,8 C 94 % 992,6 hPa 0,0 l/m 0 min 0 min 0 W/m 12,9 km/h (3 Bft) 93,62 %
22.11.2022 01:50 6,4 C 5,6 C 2,8 C 95 % 992,6 hPa 0,0 l/m 0 min 0 min 0 W/m 12,9 km/h (3 Bft) 100,00 %
22.11.2022 01:52 6,4 C 5,6 C 2,8 C 95 % 992,6 hPa 0,0 l/m 0 min 0 min 0 W/m 9,7 km/h (2 Bft) 100,00 %
22.11.2022 01:54 6,4 C 5,6 C 2,8 C 95 % 992,7 hPa 0,0 l/m 0 min 0 min 0 W/m 12,9 km/h (3 Bft) 97,67 %
22.11.2022 01:56 6,4 C 5,6 C 2,8 C 95 % 992,7 hPa 0,0 l/m 0 min 0 min 0 W/m 12,9 km/h (3 Bft) 100,00 %
22.11.2022 01:58 6,4 C 5,6 C 2,8 C 95 % 992,7 hPa 0,0 l/m 0 min 0 min 0 W/m 12,9 km/h (3 Bft) 100,00 %
22.11.2022 02:00 6,4 C 5,6 C 2,8 C 95 % 992,7 hPa 0,0 l/m 0 min 0 min 0 W/m 12,9 km/h (3 Bft) 97,87 %
22.11.2022 02:02 6,4 C 5,6 C 2,8 C 95 % 992,7 hPa 0,0 l/m 0 min 0 min 0 W/m 16,1 km/h (3 Bft) 100,00 %
22.11.2022 02:04 6,4 C 5,6 C 2,8 C 95 % 992,7 hPa 0,0 l/m 0 min 0 min 0 W/m 22,5 km/h (4 Bft) 95,74 %
22.11.2022 02:06 6,4 C 5,6 C 2,8 C 95 % 992,7 hPa 0,0 l/m 0 min 0 min 0 W/m 9,7 km/h (2 Bft) 97,87 %
22.11.2022 02:08 6,4 C 5,6 C 2,8 C 95 % 992,7 hPa 0,0 l/m 0 min 0 min 0 W/m 9,7 km/h (2 Bft) 100,00 %
22.11.2022 02:10 6,4 C 5,6 C 2,8 C 95 % 992,8 hPa 0,0 l/m 0 min 0 min 0 W/m 12,9 km/h (3 Bft) 100,00 %
22.11.2022 02:17 6,4 C 5,6 C 2,8 C 95 % 992,7 hPa 0,0 l/m 0 min 0 min 0 W/m 12,9 km/h (3 Bft) 100,00 %
22.11.2022 02:18 6,4 C 5,6 C 2,8 C 95 % 992,7 hPa 0,0 l/m 0 min 0 min 0 W/m 12,9 km/h (3 Bft) 100,00 %
22.11.2022 02:20 6,4 C 5,6 C 2,8 C 95 % 992,7 hPa 0,0 l/m 0 min 0 min 0 W/m 12,9 km/h (3 Bft) 95,74 %
22.11.2022 02:22 6,4 C 5,6 C 2,8 C 95 % 992,7 hPa 0,0 l/m 0 min 0 min 0 W/m 6,4 km/h (2 Bft) 100,00 %
22.11.2022 02:24 6,4 C 5,6 C 2,8 C 95 % 992,7 hPa 0,0 l/m 0 min 0 min 0 W/m 6,4 km/h (2 Bft) 100,00 %
22.11.2022 02:26 6,3 C 5,6 C 2,8 C 95 % 992,8 hPa 0,0 l/m 0 min 0 min 0 W/m 6,4 km/h (2 Bft) 100,00 %
22.11.2022 02:28 6,3 C 5,6 C 2,8 C 95 % 992,8 hPa 0,0 l/m 0 min 0 min 0 W/m 12,9 km/h (3 Bft) 100,00 %
22.11.2022 02:30 6,3 C 5,6 C 2,8 C 95 % 992,8 hPa 0,0 l/m 0 min 0 min 0 W/m 9,7 km/h (2 Bft) 100,00 %
22.11.2022 02:32 6,3 C 5,6 C 2,8 C 95 % 992,8 hPa 0,0 l/m 0 min 0 min 0 W/m 3,2 km/h (1 Bft) 100,00 %
22.11.2022 02:34 6,3 C 5,6 C 2,8 C 95 % 992,7 hPa 0,0 l/m 0 min 0 min 0 W/m 3,2 km/h (1 Bft) 100,00 %
22.11.2022 02:36 6,3 C 5,6 C 2,8 C 95 % 992,8 hPa 0,0 l/m 0 min 0 min 0 W/m 0,0 km/h (0 Bft) 100,00 %
22.11.2022 02:38 6,2 C 5,0 C 2,8 C 95 % 992,8 hPa 0,0 l/m 0 min 0 min 0 W/m 0,0 km/h (0 Bft) 100,00 %
22.11.2022 02:40 6,2 C 5,0 C 2,8 C 95 % 992,9 hPa 0,0 l/m 0 min 0 min 0 W/m 3,2 km/h (1 Bft) 97,87 %
22.11.2022 02:42 6,2 C 5,0 C 2,8 C 95 % 992,8 hPa 0,0 l/m 0 min 0 min 0 W/m 0,0 km/h (0 Bft) 74,47 %
22.11.2022 02:44 6,2 C 5,0 C 2,8 C 95 % 992,8 hPa 0,0 l/m 0 min 0 min 0 W/m 3,2 km/h (1 Bft) 81,40 %
22.11.2022 02:46 6,2 C 5,0 C 2,8 C 95 % 992,8 hPa 0,0 l/m 0 min 0 min 0 W/m 6,4 km/h (2 Bft) 100,00 %
22.11.2022 02:48 6,2 C 5,0 C 2,8 C 95 % 992,7 hPa 0,0 l/m 0 min 0 min 0 W/m 3,2 km/h (1 Bft) 97,83 %
22.11.2022 02:50 6,1 C 5,0 C 2,8 C 95 % 992,8 hPa 0,0 l/m 0 min 0 min 0 W/m 12,9 km/h (3 Bft) 100,00 %
22.11.2022 02:52 6,1 C 5,0 C 2,8 C 95 % 992,9 hPa 0,0 l/m 0 min 0 min 0 W/m 6,4 km/h (2 Bft) 100,00 %
22.11.2022 02:54 6,1 C 5,0 C 2,8 C 95 % 992,9 hPa 0,0 l/m 0 min 0 min 0 W/m 0,0 km/h (0 Bft) 100,00 %
22.11.2022 02:56 6,1 C 5,0 C 2,2 C 95 % 992,9 hPa 0,0 l/m 0 min 0 min 0 W/m 6,4 km/h (2 Bft) 97,87 %
22.11.2022 02:58 6,1 C 5,0 C 2,2 C 95 % 992,9 hPa 0,0 l/m 0 min 0 min 0 W/m 6,4 km/h (2 Bft) 95,74 %
22.11.2022 03:00 6,1 C 5,0 C 2,2 C 95 % 992,9 hPa 0,0 l/m 0 min 0 min 0 W/m 6,4 km/h (2 Bft) 95,65 %
22.11.2022 03:02 6,1 C 5,0 C 2,2 C 95 % 992,9 hPa 0,0 l/m 0 min 0 min 0 W/m 3,2 km/h (1 Bft) 97,87 %
22.11.2022 03:04 6,0 C 5,0 C 2,2 C 95 % 992,8 hPa 0,0 l/m 0 min 0 min 0 W/m 6,4 km/h (2 Bft) 98,00 %
22.11.2022 03:06 6,0 C 5,0 C 2,2 C 95 % 992,9 hPa 0,0 l/m 0 min 0 min 0 W/m 6,4 km/h (2 Bft) 95,74 %
22.11.2022 03:08 6,0 C 5,0 C 2,2 C 95 % 992,8 hPa 0,0 l/m 0 min 0 min 0 W/m 6,4 km/h (2 Bft) 97,87 %
22.11.2022 03:10 5,9 C 5,0 C 2,2 C 95 % 992,9 hPa 0,0 l/m 0 min 0 min 0 W/m 6,4 km/h (2 Bft) 93,62 %
22.11.2022 03:12 5,9 C 5,0 C 2,2 C 95 % 992,9 hPa 0,0 l/m 0 min 0 min 0 W/m 6,4 km/h (2 Bft) 93,48 %
22.11.2022 03:14 5,9 C 5,0 C 2,2 C 95 % 992,9 hPa 0,0 l/m 0 min 0 min 0 W/m 3,2 km/h (1 Bft) 91,49 %
22.11.2022 03:16 5,9 C 5,0 C 2,2 C 95 % 992,9 hPa 0,0 l/m 0 min 0 min 0 W/m 6,4 km/h (2 Bft) 95,74 %
22.11.2022 03:18 5,9 C 5,0 C 2,2 C 95 % 992,9 hPa 0,0 l/m 0 min 0 min 0 W/m 6,4 km/h (2 Bft) 95,74 %
22.11.2022 03:20 5,9 C 5,0 C 2,2 C 95 % 993,1 hPa 0,0 l/m 0 min 0 min 0 W/m 3,2 km/h (1 Bft) 95,74 %
22.11.2022 03:22 5,8 C 5,0 C 2,2 C 95 % 993,1 hPa 0,0 l/m 0 min 0 min 0 W/m 3,2 km/h (1 Bft) 95,65 %
22.11.2022 03:24 5,8 C 5,0 C 2,2 C 95 % 993,2 hPa 0,0 l/m 0 min 0 min 0 W/m 6,4 km/h (2 Bft) 95,74 %
22.11.2022 03:26 5,8 C 5,0 C 2,2 C 95 % 993,2 hPa 0,0 l/m 0 min 0 min 0 W/m 12,9 km/h (3 Bft) 91,49 %
22.11.2022 03:28 5,8 C 5,0 C 2,2 C 95 % 993,2 hPa 0,0 l/m 0 min 0 min 0 W/m 12,9 km/h (3 Bft) 97,87 %
22.11.2022 03:30 5,8 C 5,0 C 2,2 C 96 % 993,2 hPa 0,0 l/m 0 min 0 min 0 W/m 6,4 km/h (2 Bft) 97,87 %
22.11.2022 03:32 5,8 C 5,0 C 2,2 C 96 % 993,2 hPa 0,0 l/m 0 min 0 min 0 W/m 3,2 km/h (1 Bft) 97,87 %
22.11.2022 03:34 5,8 C 5,0 C 2,2 C 96 % 993,2 hPa 0,0 l/m 0 min 0 min 0 W/m 3,2 km/h (1 Bft) 97,87 %
22.11.2022 03:36 5,8 C 5,0 C 2,2 C 96 % 993,2 hPa 0,0 l/m 0 min 0 min 0 W/m 3,2 km/h (1 Bft) 97,83 %
22.11.2022 03:38 5,7 C 5,0 C 2,2 C 96 % 993,2 hPa 0,0 l/m 0 min 0 min 0 W/m 6,4 km/h (2 Bft) 97,87 %
22.11.2022 03:40 5,7 C 5,0 C 2,2 C 96 % 993,2 hPa 0,0 l/m 0 min 0 min 0 W/m 6,4 km/h (2 Bft) 97,87 %
22.11.2022 03:42 5,7 C 5,0 C 2,2 C 96 % 993,2 hPa 0,0 l/m 0 min 0 min 0 W/m 3,2 km/h (1 Bft) 97,87 %
22.11.2022 03:44 5,7 C 4,4 C 2,2 C 96 % 993,2 hPa 0,0 l/m 0 min 0 min 0 W/m 6,4 km/h (2 Bft) 97,87 %
22.11.2022 03:46 5,6 C 4,4 C 2,2 C 96 % 993,1 hPa 0,0 l/m 0 min 0 min 0 W/m 3,2 km/h (1 Bft) 93,48 %
22.11.2022 03:48 5,6 C 4,4 C 2,2 C 96 % 993,2 hPa 0,0 l/m 0 min 0 min 0 W/m 3,2 km/h (1 Bft) 97,87 %
22.11.2022 03:50 5,6 C 4,4 C 2,2 C 96 % 993,3 hPa 0,0 l/m 0 min 0 min 0 W/m 3,2 km/h (1 Bft) 95,74 %
22.11.2022 03:52 5,6 C 4,4 C 2,2 C 96 % 993,2 hPa 0,0 l/m 0 min 0 min 0 W/m 12,9 km/h (3 Bft) 95,74 %
22.11.2022 03:54 5,6 C 4,4 C 2,2 C 96 % 993,2 hPa 0,0 l/m 0 min 0 min 0 W/m 3,2 km/h (1 Bft) 97,87 %
22.11.2022 03:56 5,6 C 4,4 C 2,2 C 96 % 993,3 hPa 0,0 l/m 0 min 0 min 0 W/m 3,2 km/h (1 Bft) 97,87 %
22.11.2022 03:58 5,5 C 4,4 C 2,2 C 96 % 993,3 hPa 0,0 l/m 0 min 0 min 0 W/m 3,2 km/h (1 Bft) 97,83 %
22.11.2022 04:00 5,5 C 4,4 C 1,7 C 96 % 993,3 hPa 0,0 l/m 0 min 0 min 0 W/m 12,9 km/h (3 Bft) 97,87 %
22.11.2022 04:02 5,4 C 4,4 C 1,7 C 96 % 993,3 hPa 0,0 l/m 0 min 0 min 0 W/m 6,4 km/h (2 Bft) 97,87 %
22.11.2022 04:04 5,4 C 4,4 C 1,7 C 96 % 993,3 hPa 0,0 l/m 0 min 0 min 0 W/m 3,2 km/h (1 Bft) 95,83 %
22.11.2022 04:06 5,4 C 4,4 C 1,7 C 96 % 993,4 hPa 0,0 l/m 0 min 0 min 0 W/m 6,4 km/h (2 Bft) 97,87 %
22.11.2022 04:08 5,3 C 4,4 C 1,7 C 96 % 993,4 hPa 0,0 l/m 0 min 0 min 0 W/m 3,2 km/h (1 Bft) 95,74 %
22.11.2022 04:10 5,3 C 4,4 C 1,7 C 96 % 993,4 hPa 0,0 l/m 0 min 0 min 0 W/m 0,0 km/h (0 Bft) 97,83 %
22.11.2022 04:12 5,3 C 4,4 C 1,7 C 96 % 993,5 hPa 0,0 l/m 0 min 0 min 0 W/m 3,2 km/h (1 Bft) 95,74 %
22.11.2022 04:14 5,3 C 4,4 C 1,7 C 96 % 993,6 hPa 0,0 l/m 0 min 0 min 0 W/m 3,2 km/h (1 Bft) 97,87 %
22.11.2022 04:16 5,3 C 4,4 C 1,7 C 96 % 993,6 hPa 0,0 l/m 0 min 0 min 0 W/m 3,2 km/h (1 Bft) 97,87 %
22.11.2022 04:18 5,2 C 4,4 C 1,7 C 96 % 993,6 hPa 0,0 l/m 0 min 0 min 0 W/m 3,2 km/h (1 Bft) 97,87 %
22.11.2022 04:20 5,2 C 4,4 C 1,7 C 96 % 993,6 hPa 0,0 l/m 0 min 0 min 0 W/m 3,2 km/h (1 Bft) 97,87 %
22.11.2022 04:22 5,2 C 4,4 C 1,7 C 96 % 993,6 hPa 0,0 l/m 0 min 0 min 0 W/m 3,2 km/h (1 Bft) 97,83 %
22.11.2022 04:24 5,2 C 4,4 C 1,7 C 96 % 993,7 hPa 0,0 l/m 0 min 0 min 0 W/m 3,2 km/h (1 Bft) 95,74 %
22.11.2022 04:26 5,2 C 4,4 C 1,7 C 96 % 993,7 hPa 0,0 l/m 0 min 0 min 0 W/m 3,2 km/h (1 Bft) 97,87 %
22.11.2022 04:28 5,2 C 4,4 C 1,7 C 96 % 993,7 hPa 0,0 l/m 0 min 0 min 0 W/m 6,4 km/h (2 Bft) 97,87 %
22.11.2022 04:30 5,2 C 4,4 C 1,7 C 96 % 993,8 hPa 0,0 l/m 0 min 0 min 0 W/m 6,4 km/h (2 Bft) 95,74 %
22.11.2022 04:32 5,2 C 4,4 C 1,7 C 96 % 993,8 hPa 0,0 l/m 0 min 0 min 0 W/m 3,2 km/h (1 Bft) 97,87 %
22.11.2022 04:34 5,1 C 4,4 C 1,7 C 96 % 993,8 hPa 0,0 l/m 0 min 0 min 0 W/m 3,2 km/h (1 Bft) 95,65 %
22.11.2022 04:36 5,1 C 4,4 C 1,7 C 96 % 993,8 hPa 0,0 l/m 0 min 0 min 0 W/m 3,2 km/h (1 Bft) 97,87 %
22.11.2022 04:38 5,1 C 4,4 C 1,7 C 96 % 993,8 hPa 0,0 l/m 0 min 0 min 0 W/m 3,2 km/h (1 Bft) 95,74 %
22.11.2022 04:40 5,1 C 4,4 C 1,7 C 96 % 993,8 hPa 0,0 l/m 0 min 0 min 0 W/m 3,2 km/h (1 Bft) 95,74 %
22.11.2022 04:42 5,1 C 4,4 C 1,7 C 96 % 993,8 hPa 0,0 l/m 0 min 0 min 0 W/m 0,0 km/h (0 Bft) 93,62 %
22.11.2022 04:44 5,1 C 4,4 C 1,7 C 96 % 993,8 hPa 0,0 l/m 0 min 0 min 0 W/m 0,0 km/h (0 Bft) 95,74 %
22.11.2022 04:46 5,1 C 3,9 C 1,7 C 96 % 993,8 hPa 0,0 l/m 0 min 0 min 0 W/m 0,0 km/h (0 Bft) 97,83 %
22.11.2022 04:48 5,1 C 3,9 C 1,7 C 96 % 993,9 hPa 0,0 l/m 0 min 0 min 0 W/m 3,2 km/h (1 Bft) 97,87 %
22.11.2022 04:50 5,0 C 3,9 C 1,7 C 96 % 993,9 hPa 0,0 l/m 0 min 0 min 0 W/m 6,4 km/h (2 Bft) 97,87 %
22.11.2022 04:52 5,0 C 3,9 C 1,7 C 96 % 993,9 hPa 0,0 l/m 0 min 0 min 0 W/m 0,0 km/h (0 Bft) 95,74 %
22.11.2022 04:54 4,9 C 3,9 C 1,7 C 96 % 994,0 hPa 0,0 l/m 0 min 0 min 0 W/m 0,0 km/h (0 Bft) 97,87 %
22.11.2022 04:56 4,9 C 3,9 C 1,7 C 96 % 993,9 hPa 0,0 l/m 0 min 0 min 0 W/m 3,2 km/h (1 Bft) 97,87 %
22.11.2022 04:58 4,9 C 3,9 C 1,7 C 96 % 994,0 hPa 0,0 l/m 0 min 0 min 0 W/m 3,2 km/h (1 Bft) 95,65 %
22.11.2022 05:00 4,9 C 3,9 C 1,7 C 96 % 993,9 hPa 0,0 l/m 0 min 0 min 0 W/m 0,0 km/h (0 Bft) 93,62 %
22.11.2022 05:02 4,9 C 3,9 C 1,7 C 96 % 993,9 hPa 0,0 l/m 0 min 0 min 0 W/m 3,2 km/h (1 Bft) 95,74 %
22.11.2022 05:04 4,9 C 3,9 C 1,7 C 96 % 993,9 hPa 0,0 l/m 0 min 0 min 0 W/m 6,4 km/h (2 Bft) 97,96 %
22.11.2022 05:06 4,8 C 3,9 C 1,7 C 96 % 993,9 hPa 0,0 l/m 0 min 0 min 0 W/m 3,2 km/h (1 Bft) 93,62 %
22.11.2022 05:08 4,8 C 3,9 C 1,7 C 96 % 993,9 hPa 0,0 l/m 0 min 0 min 0 W/m 3,2 km/h (1 Bft) 97,83 %
22.11.2022 05:10 4,8 C 3,9 C 1,7 C 96 % 993,9 hPa 0,0 l/m 0 min 0 min 0 W/m 3,2 km/h (1 Bft) 100,00 %
22.11.2022 05:12 4,8 C 3,9 C 1,7 C 96 % 994,0 hPa 0,0 l/m 0 min 0 min 0 W/m 6,4 km/h (2 Bft) 100,00 %
22.11.2022 05:14 4,8 C 3,9 C 1,7 C 96 % 994,0 hPa 0,0 l/m 0 min 0 min 0 W/m 3,2 km/h (1 Bft) 100,00 %
22.11.2022 05:16 4,8 C 3,9 C 1,7 C 96 % 994,0 hPa 0,0 l/m 0 min 0 min 0 W/m 0,0 km/h (0 Bft) 100,00 %
22.11.2022 05:18 4,8 C 3,9 C 1,7 C 96 % 994,0 hPa 0,0 l/m 0 min 0 min 0 W/m 3,2 km/h (1 Bft) 97,87 %
22.11.2022 05:20 4,7 C 3,9 C 1,7 C 96 % 994,0 hPa 0,0 l/m 0 min 0 min 0 W/m 3,2 km/h (1 Bft) 100,00 %
22.11.2022 05:22 4,7 C 3,9 C 1,7 C 96 % 993,9 hPa 0,0 l/m 0 min 0 min 0 W/m 3,2 km/h (1 Bft) 100,00 %
22.11.2022 05:24 4,7 C 3,9 C 1,7 C 96 % 993,9 hPa 0,0 l/m 0 min 0 min 0 W/m 3,2 km/h (1 Bft) 97,87 %
22.11.2022 05:26 4,7 C 3,9 C 1,7 C 96 % 993,9 hPa 0,0 l/m 0 min 0 min 0 W/m 3,2 km/h (1 Bft) 100,00 %
22.11.2022 05:28 4,7 C 3,9 C 1,7 C 96 % 994,0 hPa 0,0 l/m 0 min 0 min 0 W/m 3,2 km/h (1 Bft) 95,74 %
22.11.2022 05:30 4,7 C 3,9 C 1,7 C 96 % 994,0 hPa 0,0 l/m 0 min 0 min 0 W/m 0,0 km/h (0 Bft) 97,87 %
22.11.2022 05:32 4,7 C 3,9 C 1,7 C 96 % 994,0 hPa 0,0 l/m 0 min 0 min 0 W/m 3,2 km/h (1 Bft) 95,65 %
22.11.2022 05:34 4,7 C 3,9 C 1,7 C 96 % 994,0 hPa 0,0 l/m 0 min 0 min 0 W/m 0,0 km/h (0 Bft) 97,87 %
22.11.2022 05:36 4,6 C 3,9 C 1,1 C 96 % 994,1 hPa 0,0 l/m 0 min 0 min 0 W/m 3,2 km/h (1 Bft) 97,87 %
22.11.2022 05:38 4,6 C 3,9 C 1,1 C 96 % 994,1 hPa 0,0 l/m 0 min 0 min 0 W/m 3,2 km/h (1 Bft) 97,87 %
22.11.2022 05:40 4,6 C 3,9 C 1,1 C 96 % 994,1 hPa 0,0 l/m 0 min 0 min 0 W/m 3,2 km/h (1 Bft) 95,74 %
22.11.2022 05:42 4,6 C 3,9 C 1,1 C 96 % 994,2 hPa 0,0 l/m 0 min 0 min 0 W/m 3,2 km/h (1 Bft) 97,87 %
22.11.2022 05:44 4,6 C 3,9 C 1,1 C 96 % 994,2 hPa 0,0 l/m 0 min 0 min 0 W/m 3,2 km/h (1 Bft) 97,83 %
22.11.2022 05:46 4,6 C 3,9 C 1,1 C 96 % 994,2 hPa 0,0 l/m 0 min 0 min 0 W/m 3,2 km/h (1 Bft) 95,74 %
22.11.2022 05:48 4,6 C 3,9 C 1,1 C 96 % 994,2 hPa 0,0 l/m 0 min 0 min 0 W/m 3,2 km/h (1 Bft) 97,87 %
22.11.2022 05:50 4,5 C 3,9 C 1,1 C 96 % 994,1 hPa 0,0 l/m 0 min 0 min 0 W/m 0,0 km/h (0 Bft) 97,87 %
22.11.2022 05:52 4,5 C 3,9 C 1,1 C 96 % 994,2 hPa 0,0 l/m 0 min 0 min 0 W/m 3,2 km/h (1 Bft) 95,74 %
22.11.2022 05:54 4,5 C 3,9 C 1,1 C 96 % 994,1 hPa 0,0 l/m 0 min 0 min 0 W/m 3,2 km/h (1 Bft) 97,87 %
22.11.2022 05:56 4,4 C 3,9 C 1,1 C 96 % 994,1 hPa 0,0 l/m 0 min 0 min 0 W/m 3,2 km/h (1 Bft) 97,83 %
22.11.2022 05:58 4,4 C 3,9 C 1,1 C 96 % 994,1 hPa 0,0 l/m 0 min 0 min 0 W/m 3,2 km/h (1 Bft) 97,87 %
22.11.2022 06:00 4,4 C 3,9 C 1,1 C 96 % 994,2 hPa 0,0 l/m 0 min 0 min 0 W/m 3,2 km/h (1 Bft) 97,87 %
22.11.2022 06:02 4,4 C 3,9 C 1,1 C 96 % 994,2 hPa 0,0 l/m 0 min 0 min 0 W/m 3,2 km/h (1 Bft) 97,87 %
22.11.2022 06:04 4,4 C 3,9 C 1,1 C 96 % 994,2 hPa 0,0 l/m 0 min 0 min 0 W/m 3,2 km/h (1 Bft) 97,87 %
22.11.2022 06:08 4,4 C 3,9 C 1,1 C 96 % 994,2 hPa 0,0 l/m 0 min 0 min 0 W/m 3,2 km/h (1 Bft) 97,85 %
22.11.2022 06:10 4,3 C 3,9 C 1,1 C 96 % 994,2 hPa 0,0 l/m 0 min 0 min 0 W/m 3,2 km/h (1 Bft) 100,00 %
22.11.2022 06:12 4,3 C 3,9 C 1,1 C 96 % 994,2 hPa 0,0 l/m 0 min 0 min 0 W/m 3,2 km/h (1 Bft) 97,87 %
22.11.2022 06:14 4,3 C 3,9 C 1,1 C 96 % 994,2 hPa 0,0 l/m 0 min 0 min 0 W/m 3,2 km/h (1 Bft) 97,87 %
22.11.2022 06:16 4,3 C 3,3 C 1,1 C 96 % 994,2 hPa 0,0 l/m 0 min 0 min 0 W/m 3,2 km/h (1 Bft) 100,00 %
22.11.2022 06:18 4,3 C 3,9 C 1,1 C 96 % 994,2 hPa 0,0 l/m 0 min 0 min 0 W/m 6,4 km/h (2 Bft) 100,00 %
22.11.2022 06:20 4,3 C 3,9 C 1,1 C 96 % 994,2 hPa 0,0 l/m 0 min 0 min 0 W/m 3,2 km/h (1 Bft) 100,00 %
22.11.2022 06:22 4,3 C 3,9 C 1,1 C 96 % 994,2 hPa 0,0 l/m 0 min 0 min 0 W/m 3,2 km/h (1 Bft) 97,87 %
22.11.2022 06:24 4,3 C 3,9 C 1,1 C 96 % 994,3 hPa 0,0 l/m 0 min 0 min 0 W/m 3,2 km/h (1 Bft) 97,87 %
22.11.2022 06:26 4,3 C 3,9 C 1,1 C 96 % 994,2 hPa 0,0 l/m 0 min 0 min 0 W/m 6,4 km/h (2 Bft) 93,62 %
22.11.2022 06:28 4,3 C 3,9 C 1,1 C 96 % 994,3 hPa 0,0 l/m 0 min 0 min 0 W/m 3,2 km/h (1 Bft) 97,87 %
22.11.2022 06:30 4,3 C 3,9 C 1,1 C 96 % 994,3 hPa 0,0 l/m 0 min 0 min 0 W/m 3,2 km/h (1 Bft) 97,87 %
22.11.2022 06:32 4,3 C 3,9 C 1,1 C 96 % 994,3 hPa 0,0 l/m 0 min 0 min 0 W/m 6,4 km/h (2 Bft) 95,65 %
22.11.2022 06:34 4,3 C 3,9 C 1,1 C 96 % 994,3 hPa 0,0 l/m 0 min 0 min 0 W/m 3,2 km/h (1 Bft) 97,87 %
22.11.2022 06:36 4,3 C 3,9 C 1,1 C 96 % 994,3 hPa 0,0 l/m 0 min 0 min 0 W/m 6,4 km/h (2 Bft) 95,74 %
22.11.2022 06:38 4,3 C 3,9 C 1,1 C 96 % 994,4 hPa 0,0 l/m 0 min 0 min 0 W/m 6,4 km/h (2 Bft) 97,87 %
22.11.2022 06:40 4,3 C 3,9 C 1,1 C 96 % 994,4 hPa 0,0 l/m 0 min 0 min 0 W/m 3,2 km/h (1 Bft) 97,87 %
22.11.2022 06:42 4,3 C 3,9 C 1,1 C 96 % 994,4 hPa 0,0 l/m 0 min 0 min 0 W/m 3,2 km/h (1 Bft) 95,74 %
22.11.2022 06:44 4,3 C 3,9 C 1,1 C 96 % 994,4 hPa 0,0 l/m 0 min 0 min 0 W/m 6,4 km/h (2 Bft) 95,65 %
22.11.2022 06:46 4,3 C 3,9 C 1,1 C 96 % 994,4 hPa 0,0 l/m 0 min 0 min 0 W/m 3,2 km/h (1 Bft) 97,87 %
22.11.2022 06:48 4,3 C 3,9 C 1,1 C 96 % 994,4 hPa 0,0 l/m 0 min 0 min 0 W/m 6,4 km/h (2 Bft) 76,60 %
22.11.2022 06:50 4,3 C 3,9 C 1,1 C 96 % 994,4 hPa 0,0 l/m 0 min 0 min 0 W/m 3,2 km/h (1 Bft) 73,17 %
22.11.2022 06:52 4,3 C 3,9 C 1,1 C 96 % 994,5 hPa 0,0 l/m 0 min 0 min 0 W/m 6,4 km/h (2 Bft) 95,74 %
22.11.2022 06:54 4,3 C 3,9 C 1,1 C 96 % 994,4 hPa 0,0 l/m 0 min 0 min 0 W/m 3,2 km/h (1 Bft) 95,74 %
22.11.2022 06:56 4,3 C 3,9 C 1,1 C 96 % 994,5 hPa 0,0 l/m 0 min 0 min 0 W/m 6,4 km/h (2 Bft) 100,00 %
22.11.2022 06:58 4,4 C 3,9 C 1,1 C 96 % 994,5 hPa 0,0 l/m 0 min 0 min 0 W/m 6,4 km/h (2 Bft) 100,00 %
22.11.2022 07:00 4,4 C 3,9 C 1,1 C 96 % 994,5 hPa 0,0 l/m 0 min 0 min 0 W/m 3,2 km/h (1 Bft) 97,87 %
22.11.2022 07:02 4,4 C 3,9 C 1,1 C 96 % 994,5 hPa 0,0 l/m 0 min 0 min 0 W/m 6,4 km/h (2 Bft) 100,00 %
22.11.2022 07:04 4,4 C 3,9 C 1,1 C 96 % 994,5 hPa 0,0 l/m 0 min 0 min 0 W/m 6,4 km/h (2 Bft) 100,00 %
22.11.2022 07:06 4,3 C 3,9 C 1,1 C 96 % 994,5 hPa 0,0 l/m 0 min 0 min 0 W/m 6,4 km/h (2 Bft) 97,83 %
22.11.2022 07:08 4,3 C 3,9 C 1,1 C 96 % 994,5 hPa 0,0 l/m 0 min 0 min 0 W/m 3,2 km/h (1 Bft) 100,00 %
22.11.2022 07:10 4,3 C 3,9 C 1,1 C 96 % 994,5 hPa 0,0 l/m 0 min 0 min 0 W/m 12,9 km/h (3 Bft) 100,00 %
22.11.2022 07:12 4,3 C 3,3 C 1,1 C 96 % 994,5 hPa 0,0 l/m 0 min 0 min 0 W/m 6,4 km/h (2 Bft) 100,00 %
22.11.2022 07:14 4,3 C 3,3 C 1,1 C 96 % 994,5 hPa 0,0 l/m 0 min 0 min 0 W/m 3,2 km/h (1 Bft) 100,00 %
22.11.2022 07:16 4,3 C 3,3 C 1,1 C 96 % 994,5 hPa 0,0 l/m 0 min 0 min 0 W/m 6,4 km/h (2 Bft) 95,74 %
22.11.2022 07:18 4,2 C 3,3 C 1,1 C 96 % 994,5 hPa 0,0 l/m 0 min 0 min 0 W/m 6,4 km/h (2 Bft) 95,65 %
22.11.2022 07:20 4,2 C 3,3 C 1,1 C 96 % 994,6 hPa 0,0 l/m 0 min 0 min 0 W/m 3,2 km/h (1 Bft) 97,87 %
22.11.2022 07:22 4,2 C 3,3 C 1,1 C 96 % 994,6 hPa 0,0 l/m 0 min 0 min 0 W/m 3,2 km/h (1 Bft) 97,87 %
22.11.2022 07:24 4,2 C 3,3 C 1,1 C 96 % 994,6 hPa 0,0 l/m 0 min 0 min 0 W/m 6,4 km/h (2 Bft) 97,87 %
22.11.2022 07:26 4,2 C 3,3 C 1,1 C 96 % 994,6 hPa 0,0 l/m 0 min 0 min 0 W/m 3,2 km/h (1 Bft) 95,74 %
22.11.2022 07:28 4,2 C 3,3 C 1,1 C 96 % 994,5 hPa 0,0 l/m 0 min 0 min 0 W/m 3,2 km/h (1 Bft) 95,74 %
22.11.2022 07:30 4,1 C 3,3 C 1,1 C 96 % 994,5 hPa 0,0 l/m 0 min 0 min 0 W/m 3,2 km/h (1 Bft) 97,87 %
22.11.2022 07:32 4,1 C 3,3 C 1,1 C 96 % 994,6 hPa 0,0 l/m 0 min 0 min 0 W/m 12,9 km/h (3 Bft) 95,65 %
22.11.2022 07:34 4,1 C 3,3 C 1,1 C 96 % 994,6 hPa 0,0 l/m 0 min 0 min 0 W/m 12,9 km/h (3 Bft) 93,62 %
22.11.2022 07:36 4,1 C 3,3 C 1,1 C 96 % 994,6 hPa 0,0 l/m 0 min 0 min 0 W/m 6,4 km/h (2 Bft) 91,49 %
22.11.2022 07:38 4,1 C 3,9 C 1,1 C 96 % 994,6 hPa 0,0 l/m 0 min 0 min 0 W/m 19,3 km/h (3 Bft) 95,74 %
22.11.2022 07:40 4,2 C 3,9 C 1,1 C 96 % 994,6 hPa 0,0 l/m 0 min 0 min 0 W/m 6,4 km/h (2 Bft) 93,62 %
22.11.2022 07:42 4,2 C 3,9 C 1,1 C 96 % 994,6 hPa 0,0 l/m 0 min 0 min 0 W/m 6,4 km/h (2 Bft) 97,87 %
22.11.2022 07:44 4,2 C 3,9 C 1,1 C 96 % 994,6 hPa 0,0 l/m 0 min 0 min 0 W/m 3,2 km/h (1 Bft) 93,48 %
22.11.2022 07:46 4,2 C 3,9 C 1,1 C 96 % 994,6 hPa 0,0 l/m 0 min 0 min 0 W/m 6,4 km/h (2 Bft) 95,74 %
22.11.2022 07:48 4,2 C 3,9 C 1,1 C 96 % 994,6 hPa 0,0 l/m 0 min 0 min 0 W/m 6,4 km/h (2 Bft) 93,62 %
22.11.2022 07:50 4,2 C 3,9 C 1,1 C 96 % 994,6 hPa 0,0 l/m 0 min 0 min 0 W/m 6,4 km/h (2 Bft) 97,87 %
22.11.2022 07:52 4,2 C 3,9 C 1,1 C 96 % 994,6 hPa 0,0 l/m 0 min 0 min 0 W/m 6,4 km/h (2 Bft) 97,87 %
22.11.2022 07:54 4,2 C 3,9 C 1,1 C 96 % 994,6 hPa 0,0 l/m 0 min 0 min 0 W/m 6,4 km/h (2 Bft) 97,87 %
22.11.2022 07:56 4,2 C 3,9 C 1,1 C 96 % 994,6 hPa 0,0 l/m 0 min 0 min 0 W/m 12,9 km/h (3 Bft) 93,48 %
22.11.2022 07:58 4,3 C 3,9 C 1,1 C 95 % 994,6 hPa 0,0 l/m 0 min 0 min 0 W/m 3,2 km/h (1 Bft) 97,87 %
22.11.2022 08:00 4,3 C 3,9 C 1,1 C 95 % 994,7 hPa 0,0 l/m 0 min 0 min 0 W/m 6,4 km/h (2 Bft) 93,62 %
22.11.2022 08:02 4,3 C 3,9 C 1,1 C 95 % 994,7 hPa 0,0 l/m 0 min 0 min 0 W/m 3,2 km/h (1 Bft) 93,62 %
22.11.2022 08:04 4,2 C 3,9 C 1,1 C 96 % 994,7 hPa 0,0 l/m 0 min 0 min 0 W/m 9,7 km/h (2 Bft) 93,88 %
22.11.2022 08:06 4,2 C 3,9 C 1,1 C 96 % 994,6 hPa 0,2 l/m 0 min 0 min 0 W/m 12,9 km/h (3 Bft) 93,48 %
22.11.2022 08:08 4,2 C 3,9 C 1,1 C 95 % 994,6 hPa 0,0 l/m 0 min 0 min 0 W/m 12,9 km/h (3 Bft) 89,36 %
22.11.2022 08:10 4,2 C 3,9 C 1,1 C 95 % 994,7 hPa 0,0 l/m 0 min 0 min 0 W/m 6,4 km/h (2 Bft) 93,62 %
22.11.2022 08:12 4,2 C 3,9 C 1,1 C 95 % 994,8 hPa 0,0 l/m 0 min 0 min 5 W/m 12,9 km/h (3 Bft) 91,49 %
22.11.2022 08:14 4,2 C 3,9 C 1,1 C 95 % 994,8 hPa 0,0 l/m 0 min 0 min 5 W/m 12,9 km/h (3 Bft) 93,62 %
22.11.2022 08:16 4,2 C 3,9 C 1,1 C 95 % 994,8 hPa 0,0 l/m 0 min 0 min 5 W/m 12,9 km/h (3 Bft) 93,62 %
22.11.2022 08:18 4,2 C 3,3 C 1,1 C 95 % 994,9 hPa 0,0 l/m 0 min 0 min 6 W/m 16,1 km/h (3 Bft) 95,65 %
22.11.2022 08:20 4,2 C 3,3 C 1,1 C 95 % 994,9 hPa 0,0 l/m 0 min 0 min 7 W/m 12,9 km/h (3 Bft) 97,87 %
22.11.2022 08:22 4,2 C 3,3 C 1,1 C 95 % 994,9 hPa 0,0 l/m 0 min 0 min 7 W/m 6,4 km/h (2 Bft) 97,87 %
22.11.2022 08:24 4,1 C 3,3 C 1,1 C 95 % 994,9 hPa 0,0 l/m 0 min 0 min 7 W/m 6,4 km/h (2 Bft) 95,74 %
22.11.2022 08:26 4,1 C 3,3 C 1,1 C 95 % 994,9 hPa 0,0 l/m 0 min 0 min 8 W/m 6,4 km/h (2 Bft) 97,87 %
22.11.2022 08:28 4,1 C 3,3 C 1,1 C 95 % 994,9 hPa 0,0 l/m 0 min 0 min 9 W/m 3,2 km/h (1 Bft) 95,74 %
22.11.2022 08:30 4,1 C 3,3 C 1,1 C 95 % 994,9 hPa 0,0 l/m 0 min 0 min 11 W/m 12,9 km/h (3 Bft) 95,65 %
22.11.2022 08:32 4,1 C 3,3 C 1,1 C 95 % 994,9 hPa 0,0 l/m 0 min 0 min 11 W/m 12,9 km/h (3 Bft) 95,74 %
22.11.2022 08:34 4,1 C 3,3 C 1,1 C 95 % 994,9 hPa 0,0 l/m 0 min 0 min 11 W/m 12,9 km/h (3 Bft) 97,87 %
22.11.2022 08:36 4,1 C 3,3 C 1,1 C 95 % 995,0 hPa 0,0 l/m 0 min 0 min 12 W/m 12,9 km/h (3 Bft) 97,87 %
22.11.2022 08:38 4,1 C 3,3 C 1,1 C 95 % 995,0 hPa 0,0 l/m 0 min 0 min 13 W/m 12,9 km/h (3 Bft) 97,87 %
22.11.2022 08:40 4,1 C 3,3 C 1,1 C 95 % 995,0 hPa 0,0 l/m 0 min 0 min 14 W/m 16,1 km/h (3 Bft) 97,87 %
22.11.2022 08:42 4,1 C 3,3 C 1,1 C 95 % 995,0 hPa 0,0 l/m 0 min 0 min 14 W/m 12,9 km/h (3 Bft) 100,00 %
22.11.2022 08:44 4,1 C 3,3 C 1,1 C 95 % 995,1 hPa 0,0 l/m 0 min 0 min 14 W/m 12,9 km/h (3 Bft) 100,00 %
22.11.2022 08:46 4,1 C 3,3 C 1,1 C 95 % 995,1 hPa 0,0 l/m 0 min 0 min 14 W/m 12,9 km/h (3 Bft) 100,00 %
22.11.2022 08:48 4,1 C 3,3 C 1,1 C 95 % 995,1 hPa 0,0 l/m 0 min 0 min 12 W/m 12,9 km/h (3 Bft) 97,87 %
22.11.2022 08:50 4,1 C 3,9 C 1,1 C 95 % 995,1 hPa 0,0 l/m 0 min 0 min 14 W/m 12,9 km/h (3 Bft) 100,00 %
22.11.2022 08:52 4,1 C 3,9 C 1,1 C 95 % 995,1 hPa 0,0 l/m 0 min 0 min 17 W/m 16,1 km/h (3 Bft) 100,00 %
22.11.2022 08:54 4,1 C 3,9 C 1,1 C 95 % 995,1 hPa 0,0 l/m 0 min 0 min 18 W/m 19,3 km/h (3 Bft) 97,87 %
22.11.2022 08:56 4,1 C 3,9 C 1,1 C 95 % 995,1 hPa 0,0 l/m 0 min 0 min 19 W/m 12,9 km/h (3 Bft) 97,87 %
22.11.2022 08:58 4,1 C 3,9 C 1,1 C 95 % 995,1 hPa 0,0 l/m 0 min 0 min 23 W/m 12,9 km/h (3 Bft) 97,87 %
22.11.2022 09:00 4,1 C 3,9 C 1,1 C 95 % 995,1 hPa 0,0 l/m 0 min 0 min 25 W/m 12,9 km/h (3 Bft) 97,87 %
22.11.2022 09:02 4,1 C 3,9 C 1,1 C 95 % 995,1 hPa 0,0 l/m 0 min 0 min 27 W/m 12,9 km/h (3 Bft) 95,74 %
22.11.2022 09:04 4,2 C 3,9 C 1,1 C 95 % 995,1 hPa 0,0 l/m 0 min 0 min 28 W/m 12,9 km/h (3 Bft) 93,75 %
22.11.2022 09:06 4,2 C 3,9 C 1,1 C 95 % 995,2 hPa 0,0 l/m 0 min 0 min 30 W/m 12,9 km/h (3 Bft) 95,74 %
22.11.2022 09:08 4,2 C 3,9 C 1,1 C 95 % 995,2 hPa 0,0 l/m 0 min 0 min 30 W/m 6,4 km/h (2 Bft) 97,87 %
22.11.2022 09:10 4,2 C 3,9 C 1,1 C 94 % 995,2 hPa 0,0 l/m 0 min 0 min 30 W/m 16,1 km/h (3 Bft) 97,87 %
22.11.2022 09:12 4,2 C 3,9 C 1,1 C 94 % 995,1 hPa 0,0 l/m 0 min 0 min 29 W/m 16,1 km/h (3 Bft) 100,00 %
22.11.2022 09:14 4,2 C 3,9 C 1,1 C 94 % 995,1 hPa 0,0 l/m 0 min 0 min 30 W/m 12,9 km/h (3 Bft) 100,00 %
22.11.2022 09:16 4,3 C 3,9 C 1,1 C 94 % 995,1 hPa 0,0 l/m 0 min 0 min 29 W/m 6,4 km/h (2 Bft) 100,00 %
22.11.2022 09:18 4,3 C 3,9 C 1,1 C 95 % 995,2 hPa 0,0 l/m 0 min 0 min 28 W/m 16,1 km/h (3 Bft) 100,00 %
22.11.2022 09:20 4,3 C 4,4 C 1,1 C 95 % 995,2 hPa 0,0 l/m 0 min 0 min 28 W/m 16,1 km/h (3 Bft) 100,00 %
22.11.2022 09:22 4,4 C 4,4 C 1,1 C 95 % 995,2 hPa 0,0 l/m 0 min 0 min 31 W/m 16,1 km/h (3 Bft) 100,00 %
22.11.2022 09:24 4,4 C 4,4 C 1,1 C 94 % 995,2 hPa 0,0 l/m 0 min 0 min 33 W/m 6,4 km/h (2 Bft) 100,00 %
22.11.2022 09:26 4,4 C 4,4 C 1,1 C 94 % 995,2 hPa 0,0 l/m 0 min 0 min 43 W/m 16,1 km/h (3 Bft) 97,87 %
22.11.2022 09:28 4,4 C 4,4 C 1,1 C 94 % 995,2 hPa 0,0 l/m 0 min 0 min 54 W/m 16,1 km/h (3 Bft) 100,00 %
22.11.2022 09:30 4,5 C 4,4 C 1,1 C 94 % 995,2 hPa 0,0 l/m 0 min 0 min 44 W/m 6,4 km/h (2 Bft) 100,00 %
22.11.2022 09:32 4,6 C 4,4 C 1,7 C 94 % 995,3 hPa 0,0 l/m 0 min 0 min 54 W/m 16,1 km/h (3 Bft) 97,83 %
22.11.2022 09:34 4,6 C 4,4 C 1,7 C 94 % 995,3 hPa 0,0 l/m 2 min 0 min 86 W/m 16,1 km/h (3 Bft) 100,00 %
22.11.2022 09:36 4,6 C 4,4 C 1,7 C 94 % 995,3 hPa 0,0 l/m 0 min 0 min 75 W/m 16,1 km/h (3 Bft) 100,00 %
22.11.2022 09:38 4,7 C 5,0 C 1,7 C 94 % 995,3 hPa 0,0 l/m 2 min 0 min 94 W/m 16,1 km/h (3 Bft) 100,00 %
22.11.2022 09:40 4,7 C 5,0 C 1,7 C 94 % 995,4 hPa 0,0 l/m 0 min 0 min 64 W/m 12,9 km/h (3 Bft) 93,62 %
22.11.2022 09:42 4,8 C 5,0 C 1,7 C 94 % 995,4 hPa 0,0 l/m 0 min 0 min 65 W/m 16,1 km/h (3 Bft) 51,35 %
22.11.2022 09:44 4,8 C 5,0 C 1,7 C 94 % 995,4 hPa 0,0 l/m 2 min 0 min 188 W/m 16,1 km/h (3 Bft) 97,83 %
22.11.2022 09:46 4,9 C 5,6 C 1,7 C 94 % 995,4 hPa 0,0 l/m 2 min 0 min 207 W/m 12,9 km/h (3 Bft) 100,00 %
22.11.2022 09:48 4,9 C 5,6 C 1,7 C 94 % 995,4 hPa 0,0 l/m 2 min 0 min 170 W/m 16,1 km/h (3 Bft) 100,00 %
22.11.2022 09:50 5,1 C 5,6 C 2,2 C 94 % 995,5 hPa 0,0 l/m 2 min 0 min 212 W/m 16,1 km/h (3 Bft) 95,74 %
22.11.2022 09:52 5,1 C 5,6 C 2,2 C 94 % 995,4 hPa 0,0 l/m 2 min 0 min 251 W/m 12,9 km/h (3 Bft) 97,87 %
22.11.2022 09:54 5,2 C 6,1 C 2,2 C 94 % 995,4 hPa 0,0 l/m 2 min 0 min 221 W/m 12,9 km/h (3 Bft) 93,48 %
22.11.2022 09:56 5,3 C 6,1 C 2,2 C 94 % 995,4 hPa 0,0 l/m 2 min 0 min 245 W/m 16,1 km/h (3 Bft) 95,74 %
22.11.2022 09:58 5,4 C 6,1 C 2,2 C 94 % 995,5 hPa 0,0 l/m 2 min 0 min 269 W/m 12,9 km/h (3 Bft) 95,74 %
22.11.2022 10:00 5,6 C 6,1 C 2,2 C 94 % 995,4 hPa 0,0 l/m 2 min 0 min 251 W/m 12,9 km/h (3 Bft) 95,74 %
22.11.2022 10:02 5,6 C 6,7 C 2,8 C 94 % 995,5 hPa 0,0 l/m 2 min 0 min 282 W/m 9,7 km/h (2 Bft) 95,74 %
22.11.2022 10:04 5,7 C 6,7 C 2,8 C 94 % 995,5 hPa 0,0 l/m 2 min 0 min 308 W/m 12,9 km/h (3 Bft) 95,74 %
22.11.2022 10:06 5,8 C 6,7 C 2,8 C 94 % 995,5 hPa 0,0 l/m 2 min 0 min 236 W/m 12,9 km/h (3 Bft) 93,48 %
22.11.2022 10:08 5,9 C 6,7 C 2,8 C 94 % 995,5 hPa 0,0 l/m 2 min 0 min 140 W/m 19,3 km/h (3 Bft) 95,74 %
22.11.2022 10:10 6,1 C 6,7 C 2,8 C 94 % 995,4 hPa 0,0 l/m 2 min 0 min 117 W/m 16,1 km/h (3 Bft) 93,62 %
22.11.2022 10:12 6,2 C 6,7 C 2,8 C 93 % 995,5 hPa 0,0 l/m 2 min 0 min 129 W/m 16,1 km/h (3 Bft) 95,74 %
22.11.2022 10:14 6,3 C 6,7 C 2,8 C 93 % 995,5 hPa 0,0 l/m 2 min 0 min 281 W/m 16,1 km/h (3 Bft) 93,62 %
22.11.2022 10:16 6,4 C 7,2 C 2,8 C 93 % 995,5 hPa 0,0 l/m 2 min 0 min 298 W/m 6,4 km/h (2 Bft) 91,49 %
22.11.2022 10:18 6,5 C 7,2 C 2,8 C 92 % 995,5 hPa 0,0 l/m 2 min 0 min 216 W/m 19,3 km/h (3 Bft) 93,62 %
22.11.2022 10:20 6,6 C 7,2 C 2,8 C 92 % 995,4 hPa 0,0 l/m 2 min 0 min 323 W/m 19,3 km/h (3 Bft) 93,48 %
22.11.2022 10:22 6,7 C 7,8 C 2,8 C 91 % 995,4 hPa 0,0 l/m 2 min 0 min 242 W/m 9,7 km/h (2 Bft) 93,62 %
22.11.2022 10:24 6,8 C 7,8 C 2,8 C 91 % 995,4 hPa 0,0 l/m 2 min 0 min 160 W/m 12,9 km/h (3 Bft) 93,62 %
22.11.2022 10:26 6,9 C 7,8 C 3,3 C 90 % 995,5 hPa 0,0 l/m 2 min 0 min 140 W/m 19,3 km/h (3 Bft) 93,62 %
22.11.2022 10:28 7,1 C 7,8 C 2,8 C 90 % 995,5 hPa 0,0 l/m 2 min 0 min 138 W/m 16,1 km/h (3 Bft) 93,62 %
22.11.2022 10:30 7,1 C 7,2 C 2,8 C 89 % 995,5 hPa 0,0 l/m 0 min 0 min 112 W/m 22,5 km/h (4 Bft) 91,30 %
22.11.2022 10:32 7,2 C 7,2 C 2,8 C 88 % 995,5 hPa 0,0 l/m 2 min 0 min 154 W/m 29,0 km/h (5 Bft) 89,36 %
22.11.2022 10:34 7,2 C 7,2 C 2,8 C 88 % 995,5 hPa 0,0 l/m 2 min 0 min 147 W/m 16,1 km/h (3 Bft) 93,62 %
22.11.2022 10:36 7,2 C 7,2 C 2,8 C 87 % 995,5 hPa 0,0 l/m 0 min 0 min 67 W/m 19,3 km/h (3 Bft) 91,49 %
22.11.2022 10:38 7,3 C 7,2 C 2,8 C 87 % 995,5 hPa 0,0 l/m 0 min 0 min 52 W/m 16,1 km/h (3 Bft) 91,49 %
22.11.2022 10:40 7,3 C 7,2 C 2,8 C 86 % 995,5 hPa 0,0 l/m 0 min 0 min 68 W/m 22,5 km/h (4 Bft) 93,62 %
22.11.2022 10:42 7,3 C 7,2 C 2,8 C 86 % 995,5 hPa 0,0 l/m 0 min 0 min 73 W/m 16,1 km/h (3 Bft) 93,48 %
22.11.2022 10:44 7,3 C 7,2 C 2,8 C 85 % 995,5 hPa 0,0 l/m 0 min 0 min 86 W/m 12,9 km/h (3 Bft) 95,74 %
22.11.2022 10:46 7,3 C 7,2 C 2,8 C 85 % 995,6 hPa 0,0 l/m 0 min 0 min 103 W/m 22,5 km/h (4 Bft) 93,62 %
22.11.2022 10:48 7,3 C 7,2 C 2,8 C 85 % 995,6 hPa 0,0 l/m 0 min 0 min 135 W/m 12,9 km/h (3 Bft) 91,49 %
22.11.2022 10:50 7,3 C 7,2 C 2,8 C 85 % 995,5 hPa 0,0 l/m 0 min 0 min 130 W/m 22,5 km/h (4 Bft) 95,74 %
22.11.2022 10:52 7,3 C 7,2 C 2,8 C 85 % 995,5 hPa 0,0 l/m 0 min 0 min 87 W/m 22,5 km/h (4 Bft) 95,74 %
22.11.2022 10:54 7,3 C 7,2 C 2,8 C 84 % 995,4 hPa 0,0 l/m 0 min 0 min 76 W/m 19,3 km/h (3 Bft) 93,48 %
22.11.2022 10:56 7,3 C 7,2 C 2,8 C 84 % 995,5 hPa 0,0 l/m 0 min 0 min 96 W/m 19,3 km/h (3 Bft) 91,49 %
22.11.2022 10:58 7,3 C 7,2 C 2,8 C 84 % 995,5 hPa 0,0 l/m 0 min 0 min 94 W/m 19,3 km/h (3 Bft) 97,87 %
22.11.2022 11:00 7,3 C 7,2 C 2,8 C 84 % 995,4 hPa 0,0 l/m 0 min 0 min 76 W/m 25,7 km/h (4 Bft) 93,62 %
22.11.2022 11:02 7,3 C 7,2 C 2,8 C 84 % 995,4 hPa 0,0 l/m 0 min 0 min 48 W/m 12,9 km/h (3 Bft) 95,74 %
22.11.2022 11:04 7,3 C 7,2 C 2,8 C 84 % 995,4 hPa 0,0 l/m 0 min 0 min 49 W/m 19,3 km/h (3 Bft) 95,92 %
22.11.2022 11:06 7,3 C 7,2 C 2,8 C 84 % 995,4 hPa 0,0 l/m 0 min 0 min 70 W/m 16,1 km/h (3 Bft) 100,00 %
22.11.2022 11:08 7,3 C 7,2 C 3,3 C 84 % 995,3 hPa 0,0 l/m 0 min 0 min 82 W/m 19,3 km/h (3 Bft) 100,00 %
22.11.2022 11:10 7,4 C 7,2 C 3,3 C 84 % 995,3 hPa 0,0 l/m 0 min 0 min 72 W/m 16,1 km/h (3 Bft) 100,00 %
22.11.2022 11:12 7,4 C 7,2 C 3,9 C 84 % 995,4 hPa 0,0 l/m 0 min 0 min 67 W/m 19,3 km/h (3 Bft) 100,00 %
22.11.2022 11:14 7,5 C 7,2 C 3,9 C 84 % 995,3 hPa 0,0 l/m 0 min 0 min 57 W/m 16,1 km/h (3 Bft) 100,00 %
22.11.2022 11:16 7,6 C 7,8 C 3,9 C 84 % 995,3 hPa 0,0 l/m 0 min 0 min 63 W/m 16,1 km/h (3 Bft) 100,00 %
22.11.2022 11:18 7,6 C 7,8 C 4,4 C 84 % 995,3 hPa 0,0 l/m 0 min 0 min 64 W/m 16,1 km/h (3 Bft) 97,83 %
22.11.2022 11:20 7,6 C 7,8 C 4,4 C 84 % 995,3 hPa 0,0 l/m 0 min 0 min 77 W/m 16,1 km/h (3 Bft) 100,00 %
22.11.2022 11:22 7,7 C 7,8 C 4,4 C 84 % 995,2 hPa 0,0 l/m 0 min 0 min 91 W/m 22,5 km/h (4 Bft) 100,00 %
22.11.2022 11:24 7,7 C 7,8 C 4,4 C 84 % 995,3 hPa 0,0 l/m 0 min 0 min 69 W/m 16,1 km/h (3 Bft) 100,00 %
22.11.2022 11:26 7,7 C 7,2 C 4,4 C 84 % 995,2 hPa 0,0 l/m 0 min 0 min 37 W/m 16,1 km/h (3 Bft) 100,00 %
22.11.2022 11:28 7,7 C 7,2 C 3,9 C 84 % 995,2 hPa 0,0 l/m 0 min 0 min 37 W/m 6,4 km/h (2 Bft) 100,00 %
22.11.2022 11:30 7,7 C 7,2 C 3,9 C 84 % 995,1 hPa 0,0 l/m 0 min 0 min 54 W/m 22,5 km/h (4 Bft) 100,00 %
22.11.2022 11:32 7,7 C 7,2 C 3,9 C 83 % 995,1 hPa 0,0 l/m 0 min 0 min 71 W/m 12,9 km/h (3 Bft) 100,00 %
22.11.2022 11:34 7,7 C 7,2 C 3,9 C 83 % 995,2 hPa 0,0 l/m 0 min 0 min 80 W/m 12,9 km/h (3 Bft) 97,87 %
22.11.2022 11:36 7,6 C 7,2 C 4,4 C 84 % 995,1 hPa 0,0 l/m 0 min 0 min 87 W/m 19,3 km/h (3 Bft) 100,00 %
22.11.2022 11:38 7,7 C 7,8 C 4,4 C 84 % 995,1 hPa 0,0 l/m 0 min 0 min 88 W/m 22,5 km/h (4 Bft) 95,74 %
22.11.2022 11:40 7,7 C 7,8 C 4,4 C 84 % 995,1 hPa 0,0 l/m 0 min 0 min 89 W/m 22,5 km/h (4 Bft) 100,00 %
22.11.2022 11:42 7,7 C 7,8 C 4,4 C 84 % 995,0 hPa 0,0 l/m 0 min 0 min 96 W/m 29,0 km/h (5 Bft) 97,83 %
22.11.2022 11:44 7,7 C 7,8 C 4,4 C 84 % 995,0 hPa 0,0 l/m 0 min 0 min 108 W/m 19,3 km/h (3 Bft) 100,00 %
22.11.2022 11:46 7,7 C 7,8 C 4,4 C 84 % 995,0 hPa 0,0 l/m 0 min 0 min 108 W/m 16,1 km/h (3 Bft) 100,00 %
22.11.2022 11:48 7,7 C 7,8 C 4,4 C 84 % 995,0 hPa 0,0 l/m 0 min 0 min 92 W/m 19,3 km/h (3 Bft) 100,00 %
22.11.2022 11:50 7,7 C 7,8 C 4,4 C 84 % 995,0 hPa 0,0 l/m 0 min 0 min 85 W/m 12,9 km/h (3 Bft) 100,00 %
22.11.2022 11:52 7,7 C 7,8 C 4,4 C 84 % 995,0 hPa 0,0 l/m 0 min 0 min 84 W/m 19,3 km/h (3 Bft) 100,00 %
22.11.2022 11:54 7,7 C 7,8 C 4,4 C 84 % 994,9 hPa 0,0 l/m 0 min 0 min 84 W/m 16,1 km/h (3 Bft) 97,83 %
22.11.2022 11:56 7,7 C 7,8 C 4,4 C 84 % 994,9 hPa 0,0 l/m 0 min 0 min 84 W/m 12,9 km/h (3 Bft) 100,00 %
22.11.2022 11:58 7,7 C 7,8 C 4,4 C 84 % 994,9 hPa 0,0 l/m 0 min 0 min 85 W/m 22,5 km/h (4 Bft) 100,00 %
22.11.2022 12:00 7,8 C 7,8 C 4,4 C 84 % 994,9 hPa 0,0 l/m 0 min 0 min 91 W/m 12,9 km/h (3 Bft) 100,00 %
22.11.2022 12:02 7,8 C 7,8 C 4,4 C 84 % 994,9 hPa 0,0 l/m 0 min 0 min 89 W/m 19,3 km/h (3 Bft) 97,87 %
22.11.2022 12:04 7,8 C 7,8 C 4,4 C 84 % 994,9 hPa 0,0 l/m 0 min 0 min 88 W/m 16,1 km/h (3 Bft) 100,00 %
22.11.2022 12:07 7,8 C 7,8 C 4,4 C 84 % 994,8 hPa 0,0 l/m 0 min 0 min 73 W/m 16,1 km/h (3 Bft) 98,57 %
22.11.2022 12:08 7,8 C 7,8 C 4,4 C 84 % 994,8 hPa 0,0 l/m 0 min 0 min 66 W/m 12,9 km/h (3 Bft) 100,00 %
22.11.2022 12:12 7,9 C 7,8 C 4,4 C 84 % 994,6 hPa 0,0 l/m 0 min 0 min 61 W/m 25,7 km/h (4 Bft) 98,31 %
22.11.2022 12:14 7,9 C 7,8 C 4,4 C 84 % 994,6 hPa 0,0 l/m 0 min 0 min 58 W/m 22,5 km/h (4 Bft) 100,00 %
22.11.2022 12:16 7,9 C 7,8 C 4,4 C 84 % 994,5 hPa 0,0 l/m 0 min 0 min 53 W/m 19,3 km/h (3 Bft) 97,87 %
22.11.2022 12:18 8,0 C 7,8 C 4,4 C 84 % 994,6 hPa 0,0 l/m 0 min 0 min 64 W/m 22,5 km/h (4 Bft) 97,83 %
22.11.2022 12:20 8,0 C 7,8 C 4,4 C 84 % 994,6 hPa 0,0 l/m 0 min 0 min 61 W/m 22,5 km/h (4 Bft) 95,74 %
22.11.2022 12:22 8,0 C 7,8 C 4,4 C 84 % 994,6 hPa 0,0 l/m 0 min 0 min 72 W/m 16,1 km/h (3 Bft) 95,74 %
22.11.2022 12:24 8,1 C 8,3 C 4,4 C 84 % 994,6 hPa 0,0 l/m 0 min 0 min 118 W/m 12,9 km/h (3 Bft) 95,74 %
22.11.2022 12:26 8,1 C 8,3 C 4,4 C 84 % 994,6 hPa 0,0 l/m 0 min 0 min 125 W/m 19,3 km/h (3 Bft) 97,87 %
22.11.2022 12:28 8,1 C 8,3 C 4,4 C 84 % 994,6 hPa 0,0 l/m 0 min 0 min 142 W/m 16,1 km/h (3 Bft) 95,74 %
22.11.2022 12:30 8,2 C 8,3 C 5,0 C 84 % 994,7 hPa 0,0 l/m 0 min 0 min 148 W/m 16,1 km/h (3 Bft) 95,65 %
22.11.2022 12:32 8,2 C 8,3 C 5,0 C 84 % 994,6 hPa 0,0 l/m 0 min 0 min 120 W/m 9,7 km/h (2 Bft) 100,00 %
22.11.2022 12:34 8,2 C 8,3 C 5,0 C 84 % 994,7 hPa 0,0 l/m 0 min 0 min 117 W/m 19,3 km/h (3 Bft) 97,87 %
22.11.2022 12:36 8,3 C 8,3 C 5,0 C 84 % 994,7 hPa 0,0 l/m 0 min 0 min 115 W/m 16,1 km/h (3 Bft) 97,87 %
22.11.2022 12:38 8,3 C 8,3 C 5,0 C 83 % 994,6 hPa 0,0 l/m 0 min 0 min 102 W/m 19,3 km/h (3 Bft) 97,87 %
22.11.2022 12:40 8,3 C 8,3 C 5,0 C 83 % 994,6 hPa 0,0 l/m 0 min 0 min 107 W/m 19,3 km/h (3 Bft) 93,62 %
22.11.2022 12:42 8,3 C 7,8 C 5,0 C 83 % 994,6 hPa 0,0 l/m 0 min 0 min 100 W/m 22,5 km/h (4 Bft) 97,83 %
22.11.2022 12:44 8,3 C 7,8 C 5,0 C 83 % 994,6 hPa 0,0 l/m 0 min 0 min 97 W/m 19,3 km/h (3 Bft) 97,87 %
22.11.2022 12:46 8,3 C 7,8 C 5,0 C 83 % 994,6 hPa 0,0 l/m 0 min 0 min 100 W/m 12,9 km/h (3 Bft) 97,87 %
22.11.2022 12:48 8,3 C 7,8 C 5,0 C 83 % 994,6 hPa 0,0 l/m 0 min 0 min 107 W/m 22,5 km/h (4 Bft) 97,87 %
22.11.2022 12:50 8,3 C 7,8 C 5,0 C 83 % 994,6 hPa 0,0 l/m 0 min 0 min 101 W/m 16,1 km/h (3 Bft) 97,87 %
22.11.2022 12:52 8,3 C 7,8 C 5,0 C 83 % 994,6 hPa 0,0 l/m 0 min 0 min 89 W/m 16,1 km/h (3 Bft) 97,87 %
22.11.2022 12:54 8,3 C 8,3 C 5,0 C 83 % 994,6 hPa 0,0 l/m 0 min 0 min 88 W/m 19,3 km/h (3 Bft) 93,48 %
22.11.2022 12:56 8,3 C 8,3 C 5,0 C 83 % 994,6 hPa 0,0 l/m 0 min 0 min 92 W/m 12,9 km/h (3 Bft) 95,74 %
22.11.2022 12:58 8,3 C 7,8 C 5,0 C 83 % 994,6 hPa 0,0 l/m 0 min 0 min 94 W/m 29,0 km/h (5 Bft) 91,49 %
22.11.2022 13:00 8,3 C 7,8 C 5,0 C 83 % 994,6 hPa 0,0 l/m 0 min 0 min 74 W/m 16,1 km/h (3 Bft) 97,87 %
22.11.2022 13:02 8,3 C 7,8 C 5,0 C 83 % 994,6 hPa 0,0 l/m 0 min 0 min 84 W/m 22,5 km/h (4 Bft) 95,74 %
22.11.2022 13:04 8,3 C 8,3 C 5,0 C 83 % 994,6 hPa 0,0 l/m 0 min 0 min 118 W/m 29,0 km/h (5 Bft) 95,74 %
22.11.2022 13:06 8,4 C 8,3 C 5,0 C 83 % 994,6 hPa 0,0 l/m 0 min 0 min 115 W/m 22,5 km/h (4 Bft) 93,62 %
22.11.2022 13:08 8,4 C 8,3 C 5,0 C 83 % 994,6 hPa 0,0 l/m 0 min 0 min 123 W/m 19,3 km/h (3 Bft) 95,74 %
22.11.2022 13:10 8,4 C 8,3 C 5,0 C 83 % 994,6 hPa 0,0 l/m 0 min 0 min 148 W/m 19,3 km/h (3 Bft) 91,49 %
22.11.2022 13:12 8,4 C 8,9 C 5,0 C 83 % 994,5 hPa 0,0 l/m 0 min 0 min 150 W/m 12,9 km/h (3 Bft) 91,49 %
22.11.2022 13:14 8,5 C 8,9 C 5,0 C 83 % 994,5 hPa 0,0 l/m 0 min 0 min 147 W/m 12,9 km/h (3 Bft) 95,74 %
22.11.2022 13:16 8,5 C 8,3 C 5,0 C 83 % 994,5 hPa 0,0 l/m 0 min 0 min 98 W/m 16,1 km/h (3 Bft) 97,83 %
22.11.2022 13:18 8,5 C 8,3 C 5,0 C 83 % 994,5 hPa 0,0 l/m 0 min 0 min 83 W/m 16,1 km/h (3 Bft) 95,74 %
22.11.2022 13:20 8,6 C 8,3 C 5,0 C 83 % 994,5 hPa 0,0 l/m 0 min 0 min 122 W/m 16,1 km/h (3 Bft) 95,74 %
22.11.2022 13:22 8,6 C 8,9 C 5,0 C 83 % 994,5 hPa 0,0 l/m 0 min 0 min 140 W/m 12,9 km/h (3 Bft) 93,62 %
22.11.2022 13:24 8,6 C 8,3 C 5,0 C 83 % 994,5 hPa 0,0 l/m 0 min 0 min 121 W/m 16,1 km/h (3 Bft) 91,49 %
22.11.2022 13:26 8,6 C 8,3 C 5,0 C 82 % 994,5 hPa 0,0 l/m 0 min 0 min 124 W/m 12,9 km/h (3 Bft) 95,74 %
22.11.2022 13:28 8,6 C 8,3 C 5,0 C 82 % 994,5 hPa 0,0 l/m 0 min 0 min 90 W/m 16,1 km/h (3 Bft) 91,49 %
22.11.2022 13:30 8,6 C 8,3 C 5,0 C 82 % 994,5 hPa 0,0 l/m 0 min 0 min 83 W/m 16,1 km/h (3 Bft) 93,48 %
22.11.2022 13:32 8,7 C 8,3 C 5,0 C 82 % 994,5 hPa 0,0 l/m 0 min 0 min 85 W/m 12,9 km/h (3 Bft) 93,62 %
22.11.2022 13:34 8,7 C 8,3 C 5,0 C 82 % 994,5 hPa 0,0 l/m 0 min 0 min 88 W/m 19,3 km/h (3 Bft) 93,62 %
22.11.2022 13:36 8,7 C 8,3 C 5,0 C 82 % 994,5 hPa 0,0 l/m 0 min 0 min 80 W/m 16,1 km/h (3 Bft) 93,62 %
22.11.2022 13:38 8,7 C 8,3 C 5,0 C 82 % 994,5 hPa 0,0 l/m 0 min 0 min 66 W/m 19,3 km/h (3 Bft) 95,74 %
22.11.2022 13:40 8,7 C 8,3 C 5,0 C 82 % 994,6 hPa 0,0 l/m 0 min 0 min 60 W/m 9,7 km/h (2 Bft) 100,00 %
22.11.2022 13:42 8,7 C 8,3 C 5,0 C 82 % 994,6 hPa 0,0 l/m 0 min 0 min 58 W/m 16,1 km/h (3 Bft) 100,00 %
22.11.2022 13:44 8,7 C 8,3 C 5,0 C 82 % 994,6 hPa 0,0 l/m 0 min 0 min 61 W/m 19,3 km/h (3 Bft) 100,00 %
22.11.2022 13:46 8,7 C 8,3 C 5,0 C 81 % 994,6 hPa 0,0 l/m 0 min 0 min 77 W/m 12,9 km/h (3 Bft) 97,87 %
22.11.2022 13:48 8,7 C 8,3 C 5,0 C 81 % 994,6 hPa 0,0 l/m 0 min 0 min 82 W/m 6,4 km/h (2 Bft) 100,00 %
22.11.2022 13:50 8,7 C 8,3 C 5,0 C 82 % 994,5 hPa 0,0 l/m 0 min 0 min 74 W/m 6,4 km/h (2 Bft) 97,87 %
22.11.2022 13:52 8,7 C 8,3 C 5,0 C 82 % 994,5 hPa 0,0 l/m 0 min 0 min 69 W/m 9,7 km/h (2 Bft) 97,83 %
22.11.2022 13:54 8,7 C 8,3 C 5,0 C 82 % 994,5 hPa 0,0 l/m 0 min 0 min 64 W/m 6,4 km/h (2 Bft) 100,00 %
22.11.2022 13:56 8,7 C 8,3 C 5,0 C 82 % 994,5 hPa 0,0 l/m 0 min 0 min 60 W/m 12,9 km/h (3 Bft) 95,74 %
22.11.2022 13:58 8,7 C 8,3 C 5,0 C 82 % 994,5 hPa 0,0 l/m 0 min 0 min 49 W/m 6,4 km/h (2 Bft) 100,00 %
22.11.2022 14:00 8,7 C 8,3 C 5,0 C 82 % 994,5 hPa 0,0 l/m 0 min 0 min 57 W/m 6,4 km/h (2 Bft) 95,74 %
22.11.2022 14:02 8,7 C 8,3 C 5,0 C 82 % 994,5 hPa 0,0 l/m 0 min 0 min 50 W/m 19,3 km/h (3 Bft) 97,87 %
22.11.2022 14:04 8,7 C 8,3 C 5,0 C 82 % 994,5 hPa 0,0 l/m 0 min 0 min 47 W/m 12,9 km/h (3 Bft) 100,00 %
22.11.2022 14:06 8,7 C 8,3 C 5,0 C 81 % 994,6 hPa 0,0 l/m 0 min 0 min 53 W/m 12,9 km/h (3 Bft) 100,00 %
22.11.2022 14:08 8,7 C 8,3 C 5,0 C 81 % 994,6 hPa 0,0 l/m 0 min 0 min 47 W/m 12,9 km/h (3 Bft) 100,00 %
22.11.2022 14:10 8,7 C 8,3 C 5,0 C 81 % 994,6 hPa 0,0 l/m 0 min 0 min 42 W/m 22,5 km/h (4 Bft) 97,87 %
22.11.2022 14:12 8,7 C 7,8 C 5,0 C 81 % 994,6 hPa 0,0 l/m 0 min 0 min 38 W/m 19,3 km/h (3 Bft) 95,74 %
22.11.2022 14:14 8,6 C 7,8 C 5,0 C 81 % 994,6 hPa 0,0 l/m 0 min 0 min 46 W/m 12,9 km/h (3 Bft) 97,87 %
22.11.2022 14:16 8,6 C 8,3 C 5,0 C 81 % 994,7 hPa 0,0 l/m 0 min 0 min 59 W/m 12,9 km/h (3 Bft) 100,00 %
22.11.2022 14:18 8,6 C 7,8 C 5,0 C 81 % 994,7 hPa 0,0 l/m 0 min 0 min 59 W/m 16,1 km/h (3 Bft) 100,00 %
22.11.2022 14:20 8,6 C 7,8 C 5,0 C 80 % 994,7 hPa 0,0 l/m 0 min 0 min 45 W/m 19,3 km/h (3 Bft) 97,87 %
22.11.2022 14:22 8,6 C 7,8 C 5,0 C 80 % 994,6 hPa 0,0 l/m 0 min 0 min 33 W/m 16,1 km/h (3 Bft) 95,74 %
22.11.2022 14:24 8,6 C 7,8 C 4,4 C 80 % 994,7 hPa 0,0 l/m 0 min 0 min 29 W/m 16,1 km/h (3 Bft) 97,87 %
22.11.2022 14:26 8,6 C 7,8 C 4,4 C 80 % 994,6 hPa 0,0 l/m 0 min 0 min 32 W/m 12,9 km/h (3 Bft) 95,74 %
22.11.2022 14:28 8,6 C 7,8 C 4,4 C 80 % 994,7 hPa 0,0 l/m 0 min 0 min 36 W/m 12,9 km/h (3 Bft) 97,83 %
22.11.2022 14:30 8,6 C 7,8 C 4,4 C 80 % 994,7 hPa 0,0 l/m 0 min 0 min 30 W/m 12,9 km/h (3 Bft) 97,87 %
22.11.2022 14:32 8,6 C 7,8 C 4,4 C 80 % 994,6 hPa 0,0 l/m 0 min 0 min 28 W/m 12,9 km/h (3 Bft) 97,87 %
22.11.2022 14:34 8,6 C 7,8 C 4,4 C 81 % 994,6 hPa 0,0 l/m 0 min 0 min 24 W/m 16,1 km/h (3 Bft) 95,74 %
22.11.2022 14:36 8,6 C 7,8 C 4,4 C 81 % 994,6 hPa 0,0 l/m 0 min 0 min 16 W/m 19,3 km/h (3 Bft) 97,87 %
22.11.2022 14:38 8,5 C 7,8 C 4,4 C 80 % 994,6 hPa 0,0 l/m 0 min 0 min 17 W/m 16,1 km/h (3 Bft) 95,74 %
22.11.2022 14:40 8,5 C 7,8 C 4,4 C 81 % 994,5 hPa 0,0 l/m 0 min 0 min 23 W/m 16,1 km/h (3 Bft) 100,00 %
22.11.2022 14:42 8,5 C 7,8 C 4,4 C 81 % 994,6 hPa 0,0 l/m 0 min 0 min 22 W/m 22,5 km/h (4 Bft) 97,87 %
22.11.2022 14:44 8,5 C 7,8 C 4,4 C 81 % 994,6 hPa 0,0 l/m 0 min 0 min 19 W/m 16,1 km/h (3 Bft) 93,62 %
22.11.2022 14:46 8,4 C 7,8 C 4,4 C 81 % 994,6 hPa 0,0 l/m 0 min 0 min 19 W/m 16,1 km/h (3 Bft) 97,87 %
22.11.2022 14:48 8,5 C 7,8 C 4,4 C 81 % 994,6 hPa 0,0 l/m 0 min 0 min 25 W/m 12,9 km/h (3 Bft) 97,87 %
22.11.2022 14:50 8,4 C 7,8 C 4,4 C 81 % 994,6 hPa 0,0 l/m 0 min 0 min 37 W/m 12,9 km/h (3 Bft) 95,74 %
22.11.2022 14:52 8,4 C 7,8 C 4,4 C 81 % 994,6 hPa 0,0 l/m 0 min 0 min 45 W/m 9,7 km/h (2 Bft) 97,83 %
22.11.2022 14:54 8,4 C 7,8 C 4,4 C 81 % 994,6 hPa 0,0 l/m 0 min 0 min 39 W/m 12,9 km/h (3 Bft) 97,96 %
22.11.2022 14:56 8,4 C 7,8 C 4,4 C 81 % 994,6 hPa 0,0 l/m 0 min 0 min 39 W/m 19,3 km/h (3 Bft) 100,00 %
22.11.2022 14:58 8,4 C 7,8 C 4,4 C 81 % 994,6 hPa 0,0 l/m 0 min 0 min 37 W/m 12,9 km/h (3 Bft) 100,00 %
22.11.2022 15:00 8,4 C 7,8 C 4,4 C 81 % 994,7 hPa 0,0 l/m 0 min 0 min 33 W/m 9,7 km/h (2 Bft) 95,74 %
22.11.2022 15:02 8,4 C 7,8 C 4,4 C 81 % 994,7 hPa 0,0 l/m 0 min 0 min 29 W/m 12,9 km/h (3 Bft) 97,87 %
22.11.2022 15:04 8,4 C 7,8 C 4,4 C 81 % 994,7 hPa 0,0 l/m 0 min 0 min 27 W/m 9,7 km/h (2 Bft) 95,74 %
22.11.2022 15:06 8,4 C 7,8 C 4,4 C 81 % 994,7 hPa 0,0 l/m 0 min 0 min 29 W/m 12,9 km/h (3 Bft) 100,00 %
22.11.2022 15:08 8,4 C 7,8 C 4,4 C 81 % 994,6 hPa 0,0 l/m 0 min 0 min 30 W/m 16,1 km/h (3 Bft) 97,87 %
22.11.2022 15:10 8,4 C 7,8 C 4,4 C 82 % 994,6 hPa 0,0 l/m 0 min 0 min 30 W/m 6,4 km/h (2 Bft) 100,00 %
22.11.2022 15:12 8,4 C 7,8 C 4,4 C 82 % 994,7 hPa 0,0 l/m 0 min 0 min 28 W/m 19,3 km/h (3 Bft) 100,00 %
22.11.2022 15:14 8,4 C 7,8 C 4,4 C 82 % 994,6 hPa 0,0 l/m 0 min 0 min 26 W/m 6,4 km/h (2 Bft) 100,00 %
22.11.2022 15:16 8,4 C 7,8 C 4,4 C 82 % 994,7 hPa 0,0 l/m 0 min 0 min 27 W/m 9,7 km/h (2 Bft) 100,00 %
22.11.2022 15:18 8,4 C 7,8 C 4,4 C 82 % 994,6 hPa 0,0 l/m 0 min 0 min 27 W/m 9,7 km/h (2 Bft) 100,00 %
22.11.2022 15:20 8,4 C 7,8 C 4,4 C 82 % 994,6 hPa 0,0 l/m 0 min 0 min 27 W/m 6,4 km/h (2 Bft) 100,00 %
22.11.2022 15:22 8,4 C 7,8 C 4,4 C 82 % 994,6 hPa 0,0 l/m 0 min 0 min 27 W/m 16,1 km/h (3 Bft) 100,00 %
22.11.2022 15:24 8,4 C 7,8 C 4,4 C 82 % 994,6 hPa 0,0 l/m 0 min 0 min 26 W/m 12,9 km/h (3 Bft) 100,00 %
22.11.2022 15:26 8,4 C 7,8 C 4,4 C 83 % 994,6 hPa 0,0 l/m 0 min 0 min 28 W/m 16,1 km/h (3 Bft) 97,87 %
22.11.2022 15:28 8,4 C 7,8 C 4,4 C 83 % 994,6 hPa 0,0 l/m 0 min 0 min 22 W/m 12,9 km/h (3 Bft) 100,00 %
22.11.2022 15:30 8,4 C 7,8 C 4,4 C 83 % 994,6 hPa 0,0 l/m 0 min 0 min 19 W/m 19,3 km/h (3 Bft) 100,00 %
22.11.2022 15:32 8,4 C 7,8 C 4,4 C 83 % 994,5 hPa 0,0 l/m 0 min 0 min 19 W/m 12,9 km/h (3 Bft) 97,87 %
22.11.2022 15:34 8,3 C 7,8 C 4,4 C 83 % 994,5 hPa 0,0 l/m 0 min 0 min 20 W/m 16,1 km/h (3 Bft) 97,87 %
22.11.2022 15:36 8,3 C 7,8 C 4,4 C 84 % 994,5 hPa 0,0 l/m 0 min 0 min 19 W/m 25,7 km/h (4 Bft) 97,87 %
22.11.2022 15:38 8,3 C 7,8 C 4,4 C 83 % 994,5 hPa 0,0 l/m 0 min 0 min 24 W/m 29,0 km/h (5 Bft) 97,87 %
22.11.2022 15:40 8,3 C 7,8 C 4,4 C 84 % 994,5 hPa 0,0 l/m 0 min 0 min 26 W/m 19,3 km/h (3 Bft) 93,62 %
22.11.2022 15:42 8,3 C 7,8 C 4,4 C 84 % 994,5 hPa 0,0 l/m 0 min 0 min 24 W/m 16,1 km/h (3 Bft) 95,65 %
22.11.2022 15:44 8,3 C 7,8 C 4,4 C 84 % 994,5 hPa 0,0 l/m 0 min 0 min 19 W/m 12,9 km/h (3 Bft) 95,74 %
22.11.2022 15:46 8,2 C 7,8 C 4,4 C 84 % 994,6 hPa 0,0 l/m 0 min 0 min 19 W/m 19,3 km/h (3 Bft) 95,74 %
22.11.2022 15:48 8,2 C 7,8 C 4,4 C 83 % 994,5 hPa 0,0 l/m 0 min 0 min 18 W/m 22,5 km/h (4 Bft) 95,74 %
22.11.2022 15:50 8,2 C 7,8 C 4,4 C 83 % 994,6 hPa 0,0 l/m 0 min 0 min 18 W/m 19,3 km/h (3 Bft) 93,62 %
22.11.2022 15:52 8,2 C 7,8 C 4,4 C 83 % 994,5 hPa 0,0 l/m 0 min 0 min 17 W/m 16,1 km/h (3 Bft) 95,74 %
22.11.2022 15:54 8,2 C 7,8 C 4,4 C 83 % 994,5 hPa 0,0 l/m 0 min 0 min 14 W/m 6,4 km/h (2 Bft) 95,65 %
22.11.2022 15:56 8,2 C 7,8 C 4,4 C 83 % 994,6 hPa 0,0 l/m 0 min 0 min 12 W/m 12,9 km/h (3 Bft) 93,62 %
22.11.2022 15:58 8,2 C 7,8 C 4,4 C 83 % 994,6 hPa 0,0 l/m 0 min 0 min 11 W/m 16,1 km/h (3 Bft) 93,62 %
22.11.2022 16:00 8,2 C 7,8 C 4,4 C 83 % 994,6 hPa 0,0 l/m 0 min 0 min 11 W/m 12,9 km/h (3 Bft) 95,74 %
22.11.2022 16:02 8,2 C 7,8 C 4,4 C 83 % 994,6 hPa 0,0 l/m 0 min 0 min 11 W/m 22,5 km/h (4 Bft) 95,74 %
22.11.2022 16:04 8,2 C 7,8 C 4,4 C 83 % 994,7 hPa 0,0 l/m 0 min 0 min 10 W/m 16,1 km/h (3 Bft) 95,74 %
22.11.2022 16:06 8,3 C 7,8 C 4,4 C 83 % 994,6 hPa 0,0 l/m 0 min 0 min 8 W/m 19,3 km/h (3 Bft) 93,48 %
22.11.2022 16:08 8,2 C 7,8 C 4,4 C 83 % 994,6 hPa 0,0 l/m 0 min 0 min 7 W/m 19,3 km/h (3 Bft) 95,74 %
22.11.2022 16:10 8,3 C 7,8 C 4,4 C 83 % 994,6 hPa 0,0 l/m 0 min 0 min 7 W/m 16,1 km/h (3 Bft) 95,74 %
22.11.2022 16:12 8,3 C 7,8 C 4,4 C 83 % 994,6 hPa 0,0 l/m 0 min 0 min 7 W/m 12,9 km/h (3 Bft) 93,62 %
22.11.2022 16:14 8,3 C 7,8 C 4,4 C 83 % 994,5 hPa 0,0 l/m 0 min 0 min 6 W/m 12,9 km/h (3 Bft) 91,49 %
22.11.2022 16:16 8,3 C 7,8 C 4,4 C 84 % 994,5 hPa 0,0 l/m 0 min 0 min 5 W/m 19,3 km/h (3 Bft) 89,36 %
22.11.2022 16:18 8,3 C 7,8 C 4,4 C 84 % 994,6 hPa 0,0 l/m 0 min 0 min 2 W/m 12,9 km/h (3 Bft) 95,65 %
22.11.2022 16:20 8,3 C 7,8 C 4,4 C 84 % 994,6 hPa 0,0 l/m 0 min 0 min 0 W/m 19,3 km/h (3 Bft) 95,74 %
22.11.2022 16:22 8,3 C 7,8 C 4,4 C 84 % 994,6 hPa 0,0 l/m 0 min 0 min 0 W/m 25,7 km/h (4 Bft) 95,74 %
22.11.2022 16:24 8,3 C 7,8 C 4,4 C 84 % 994,6 hPa 0,0 l/m 0 min 0 min 0 W/m 35,4 km/h (5 Bft) 95,74 %
22.11.2022 16:26 8,2 C 7,8 C 4,4 C 84 % 994,6 hPa 0,0 l/m 0 min 0 min 0 W/m 22,5 km/h (4 Bft) 97,87 %
22.11.2022 16:28 8,2 C 7,8 C 4,4 C 84 % 994,7 hPa 0,0 l/m 0 min 0 min 0 W/m 22,5 km/h (4 Bft) 95,74 %
22.11.2022 16:30 8,2 C 7,2 C 4,4 C 84 % 994,7 hPa 0,0 l/m 0 min 0 min 0 W/m 19,3 km/h (3 Bft) 95,65 %
22.11.2022 16:32 8,2 C 7,2 C 4,4 C 84 % 994,7 hPa 0,0 l/m 0 min 0 min 0 W/m 25,7 km/h (4 Bft) 97,87 %
22.11.2022 16:34 8,2 C 7,2 C 4,4 C 84 % 994,8 hPa 0,0 l/m 0 min 0 min 0 W/m 22,5 km/h (4 Bft) 97,87 %
22.11.2022 16:36 8,2 C 7,2 C 4,4 C 85 % 994,8 hPa 0,0 l/m 0 min 0 min 0 W/m 32,2 km/h (5 Bft) 93,62 %
22.11.2022 16:38 8,2 C 7,2 C 4,4 C 85 % 994,9 hPa 0,0 l/m 0 min 0 min 0 W/m 9,7 km/h (2 Bft) 95,74 %
22.11.2022 16:40 8,2 C 7,2 C 3,9 C 85 % 994,8 hPa 0,0 l/m 0 min 0 min 0 W/m 45,1 km/h (6 Bft) 97,87 %
22.11.2022 16:42 8,2 C 7,2 C 3,9 C 85 % 994,9 hPa 0,0 l/m 0 min 0 min 0 W/m 22,5 km/h (4 Bft) 95,65 %
22.11.2022 16:44 8,1 C 7,2 C 3,9 C 86 % 994,9 hPa 0,0 l/m 0 min 0 min 0 W/m 19,3 km/h (3 Bft) 97,87 %
22.11.2022 16:46 8,1 C 7,2 C 3,9 C 86 % 994,9 hPa 0,0 l/m 0 min 0 min 0 W/m 25,7 km/h (4 Bft) 97,87 %
22.11.2022 16:48 8,1 C 6,7 C 3,9 C 87 % 995,0 hPa 0,0 l/m 0 min 0 min 0 W/m 16,1 km/h (3 Bft) 93,62 %
22.11.2022 16:50 8,0 C 6,7 C 3,9 C 87 % 995,0 hPa 0,0 l/m 0 min 0 min 0 W/m 16,1 km/h (3 Bft) 97,87 %
22.11.2022 16:52 8,0 C 6,7 C 3,3 C 87 % 995,0 hPa 0,0 l/m 0 min 0 min 0 W/m 19,3 km/h (3 Bft) 97,87 %
22.11.2022 16:54 7,9 C 6,7 C 3,3 C 88 % 995,0 hPa 0,0 l/m 0 min 0 min 0 W/m 19,3 km/h (3 Bft) 97,83 %
22.11.2022 16:56 7,9 C 6,7 C 3,3 C 88 % 995,0 hPa 0,0 l/m 0 min 0 min 0 W/m 16,1 km/h (3 Bft) 97,87 %
22.11.2022 16:58 7,8 C 6,7 C 3,3 C 88 % 995,0 hPa 0,0 l/m 0 min 0 min 0 W/m 12,9 km/h (3 Bft) 100,00 %
22.11.2022 17:00 7,8 C 6,7 C 3,3 C 89 % 995,1 hPa 0,0 l/m 0 min 0 min 0 W/m 12,9 km/h (3 Bft) 97,87 %
22.11.2022 17:02 7,7 C 6,7 C 3,3 C 89 % 995,1 hPa 0,0 l/m 0 min 0 min 0 W/m 16,1 km/h (3 Bft) 100,00 %
22.11.2022 17:04 7,7 C 6,7 C 3,3 C 89 % 995,1 hPa 0,0 l/m 0 min 0 min 0 W/m 22,5 km/h (4 Bft) 100,00 %
22.11.2022 17:06 7,7 C 6,7 C 3,3 C 90 % 995,1 hPa 0,0 l/m 0 min 0 min 0 W/m 19,3 km/h (3 Bft) 97,87 %
22.11.2022 17:08 7,6 C 6,7 C 3,3 C 90 % 995,1 hPa 0,0 l/m 0 min 0 min 0 W/m 16,1 km/h (3 Bft) 100,00 %
22.11.2022 17:10 7,6 C 6,7 C 3,3 C 90 % 995,1 hPa 0,0 l/m 0 min 0 min 0 W/m 16,1 km/h (3 Bft) 100,00 %
22.11.2022 17:12 7,6 C 6,7 C 3,3 C 90 % 995,2 hPa 0,0 l/m 0 min 0 min 0 W/m 12,9 km/h (3 Bft) 97,87 %
22.11.2022 17:14 7,5 C 6,1 C 3,3 C 91 % 995,2 hPa 0,0 l/m 0 min 0 min 0 W/m 12,9 km/h (3 Bft) 100,00 %
22.11.2022 17:16 7,4 C 6,1 C 3,3 C 91 % 995,2 hPa 0,0 l/m 0 min 0 min 0 W/m 12,9 km/h (3 Bft) 97,83 %
22.11.2022 17:18 7,4 C 6,1 C 3,3 C 91 % 995,2 hPa 0,0 l/m 0 min 0 min 0 W/m 16,1 km/h (3 Bft) 95,74 %
22.11.2022 17:20 7,4 C 6,1 C 3,3 C 91 % 995,2 hPa 0,0 l/m 0 min 0 min 0 W/m 19,3 km/h (3 Bft) 100,00 %
22.11.2022 17:22 7,3 C 6,1 C 3,3 C 92 % 995,2 hPa 0,0 l/m 0 min 0 min 0 W/m 16,1 km/h (3 Bft) 97,87 %
22.11.2022 17:24 7,3 C 6,1 C 3,3 C 92 % 995,2 hPa 0,0 l/m 0 min 0 min 0 W/m 16,1 km/h (3 Bft) 95,74 %
22.11.2022 17:26 7,3 C 6,1 C 3,3 C 92 % 995,2 hPa 0,0 l/m 0 min 0 min 0 W/m 12,9 km/h (3 Bft) 51,22 %
22.11.2022 17:28 7,3 C 6,1 C 2,8 C 92 % 995,2 hPa 0,0 l/m 0 min 0 min 0 W/m 9,7 km/h (2 Bft) 100,00 %
22.11.2022 17:30 7,3 C 6,1 C 2,8 C 92 % 995,2 hPa 0,0 l/m 0 min 0 min 0 W/m 19,3 km/h (3 Bft) 100,00 %
22.11.2022 17:32 7,2 C 6,1 C 2,8 C 93 % 995,2 hPa 0,0 l/m 0 min 0 min 0 W/m 19,3 km/h (3 Bft) 100,00 %
22.11.2022 17:34 7,2 C 6,1 C 2,8 C 93 % 995,3 hPa 0,0 l/m 0 min 0 min 0 W/m 16,1 km/h (3 Bft) 100,00 %
22.11.2022 17:36 7,2 C 6,1 C 2,8 C 93 % 995,3 hPa 0,0 l/m 0 min 0 min 0 W/m 6,4 km/h (2 Bft) 100,00 %
22.11.2022 17:38 7,2 C 6,1 C 2,8 C 93 % 995,3 hPa 0,0 l/m 0 min 0 min 0 W/m 6,4 km/h (2 Bft) 100,00 %
22.11.2022 17:40 7,2 C 6,1 C 2,8 C 93 % 995,4 hPa 0,0 l/m 0 min 0 min 0 W/m 12,9 km/h (3 Bft) 100,00 %
22.11.2022 17:42 7,2 C 6,1 C 2,8 C 93 % 995,4 hPa 0,2 l/m 0 min 2 min 0 W/m 16,1 km/h (3 Bft) 97,87 %
22.11.2022 17:44 7,1 C 6,1 C 2,8 C 94 % 995,4 hPa 0,0 l/m 0 min 0 min 0 W/m 19,3 km/h (3 Bft) 100,00 %
22.11.2022 17:46 7,1 C 6,1 C 2,8 C 94 % 995,4 hPa 0,0 l/m 0 min 0 min 0 W/m 22,5 km/h (4 Bft) 100,00 %
22.11.2022 17:48 7,1 C 6,1 C 2,8 C 94 % 995,4 hPa 0,0 l/m 0 min 0 min 0 W/m 12,9 km/h (3 Bft) 100,00 %
22.11.2022 17:50 7,1 C 6,1 C 2,8 C 94 % 995,4 hPa 0,0 l/m 0 min 0 min 0 W/m 6,4 km/h (2 Bft) 100,00 %
22.11.2022 17:52 7,1 C 6,1 C 2,8 C 94 % 995,4 hPa 0,0 l/m 0 min 2 min 0 W/m 12,9 km/h (3 Bft) 100,00 %
22.11.2022 17:54 7,1 C 6,1 C 2,8 C 94 % 995,4 hPa 0,0 l/m 0 min 0 min 0 W/m 12,9 km/h (3 Bft) 95,74 %
22.11.2022 17:56 7,1 C 6,1 C 2,8 C 94 % 995,4 hPa 0,0 l/m 0 min 0 min 0 W/m 16,1 km/h (3 Bft) 97,87 %
22.11.2022 17:58 7,1 C 6,1 C 2,8 C 94 % 995,4 hPa 0,0 l/m 0 min 0 min 0 W/m 12,9 km/h (3 Bft) 100,00 %
22.11.2022 18:00 7,0 C 6,1 C 2,8 C 94 % 995,4 hPa 0,0 l/m 0 min 0 min 0 W/m 12,9 km/h (3 Bft) 97,87 %
22.11.2022 18:02 7,0 C 6,1 C 2,8 C 95 % 995,4 hPa 0,0 l/m 0 min 0 min 0 W/m 12,9 km/h (3 Bft) 97,83 %
22.11.2022 18:04 7,0 C 6,1 C 3,3 C 95 % 995,4 hPa 0,0 l/m 0 min 0 min 0 W/m 6,4 km/h (2 Bft) 100,00 %
22.11.2022 18:08 7,0 C 6,1 C 3,3 C 95 % 995,5 hPa 0,0 l/m 0 min 0 min 0 W/m 12,9 km/h (3 Bft) 97,78 %
22.11.2022 18:10 7,0 C 6,1 C 3,3 C 95 % 995,5 hPa 0,0 l/m 0 min 0 min 0 W/m 9,7 km/h (2 Bft) 95,74 %
22.11.2022 18:12 7,0 C 6,1 C 3,3 C 95 % 995,5 hPa 0,0 l/m 0 min 0 min 0 W/m 12,9 km/h (3 Bft) 95,74 %
22.11.2022 18:14 7,0 C 6,1 C 3,3 C 95 % 995,6 hPa 0,0 l/m 0 min 0 min 0 W/m 9,7 km/h (2 Bft) 95,74 %
22.11.2022 18:16 7,0 C 6,1 C 3,3 C 95 % 995,6 hPa 0,0 l/m 0 min 0 min 0 W/m 6,4 km/h (2 Bft) 95,74 %
22.11.2022 18:18 7,0 C 6,1 C 3,3 C 95 % 995,6 hPa 0,0 l/m 0 min 0 min 0 W/m 6,4 km/h (2 Bft) 95,74 %
22.11.2022 18:20 7,0 C 6,1 C 3,3 C 95 % 995,6 hPa 0,0 l/m 0 min 0 min 0 W/m 16,1 km/h (3 Bft) 95,65 %
22.11.2022 18:22 7,0 C 6,1 C 3,3 C 95 % 995,5 hPa 0,0 l/m 0 min 0 min 0 W/m 12,9 km/h (3 Bft) 95,74 %
22.11.2022 18:24 7,0 C 6,1 C 3,3 C 95 % 995,6 hPa 0,0 l/m 0 min 0 min 0 W/m 9,7 km/h (2 Bft) 95,74 %
22.11.2022 18:26 7,0 C 6,1 C 3,3 C 95 % 995,6 hPa 0,0 l/m 0 min 0 min 0 W/m 6,4 km/h (2 Bft) 91,49 %
22.11.2022 18:28 7,0 C 6,1 C 3,3 C 95 % 995,6 hPa 0,0 l/m 0 min 0 min 0 W/m 12,9 km/h (3 Bft) 95,74 %
22.11.2022 18:30 7,0 C 6,1 C 3,3 C 95 % 995,7 hPa 0,0 l/m 0 min 0 min 0 W/m 9,7 km/h (2 Bft) 91,30 %
22.11.2022 18:32 7,0 C 6,1 C 3,3 C 95 % 995,6 hPa 0,0 l/m 0 min 0 min 0 W/m 16,1 km/h (3 Bft) 95,74 %
22.11.2022 18:34 7,0 C 6,1 C 3,3 C 96 % 995,7 hPa 0,0 l/m 0 min 0 min 0 W/m 6,4 km/h (2 Bft) 93,62 %
22.11.2022 18:36 7,0 C 6,1 C 3,3 C 96 % 995,6 hPa 0,0 l/m 0 min 0 min 0 W/m 16,1 km/h (3 Bft) 91,49 %
22.11.2022 18:38 7,0 C 6,1 C 3,3 C 96 % 995,7 hPa 0,0 l/m 0 min 0 min 0 W/m 19,3 km/h (3 Bft) 93,62 %
22.11.2022 18:40 7,0 C 6,1 C 3,3 C 96 % 995,7 hPa 0,2 l/m 0 min 0 min 0 W/m 16,1 km/h (3 Bft) 93,62 %
22.11.2022 18:42 6,9 C 6,1 C 3,3 C 96 % 995,8 hPa 0,0 l/m 0 min 0 min 0 W/m 12,9 km/h (3 Bft) 95,65 %
22.11.2022 18:44 6,9 C 6,1 C 3,3 C 96 % 995,7 hPa 0,0 l/m 0 min 0 min 0 W/m 9,7 km/h (2 Bft) 95,74 %
22.11.2022 18:46 7,0 C 6,1 C 3,3 C 96 % 995,8 hPa 0,0 l/m 0 min 0 min 0 W/m 12,9 km/h (3 Bft) 95,74 %
22.11.2022 18:48 7,0 C 6,1 C 3,3 C 96 % 995,8 hPa 0,0 l/m 0 min 0 min 0 W/m 12,9 km/h (3 Bft) 93,62 %
22.11.2022 18:50 7,0 C 6,1 C 3,3 C 96 % 995,8 hPa 0,0 l/m 0 min 0 min 0 W/m 19,3 km/h (3 Bft) 95,74 %
22.11.2022 18:52 7,0 C 6,1 C 3,3 C 96 % 995,8 hPa 0,0 l/m 0 min 0 min 0 W/m 6,4 km/h (2 Bft) 93,62 %
22.11.2022 18:54 7,0 C 6,1 C 3,3 C 96 % 995,8 hPa 0,0 l/m 0 min 0 min 0 W/m 16,1 km/h (3 Bft) 97,83 %
22.11.2022 18:56 7,0 C 6,1 C 3,3 C 96 % 995,8 hPa 0,0 l/m 0 min 0 min 0 W/m 12,9 km/h (3 Bft) 95,74 %
22.11.2022 18:58 7,0 C 6,1 C 3,3 C 96 % 995,8 hPa 0,0 l/m 0 min 0 min 0 W/m 19,3 km/h (3 Bft) 97,87 %
22.11.2022 19:00 7,0 C 6,1 C 3,3 C 96 % 995,8 hPa 0,0 l/m 0 min 0 min 0 W/m 9,7 km/h (2 Bft) 97,87 %
22.11.2022 19:02 7,0 C 6,1 C 3,3 C 96 % 995,8 hPa 0,0 l/m 0 min 0 min 0 W/m 16,1 km/h (3 Bft) 97,87 %
22.11.2022 19:04 7,0 C 6,1 C 3,3 C 96 % 995,9 hPa 0,0 l/m 0 min 0 min 0 W/m 9,7 km/h (2 Bft) 97,87 %
22.11.2022 19:06 7,0 C 6,1 C 3,3 C 96 % 995,9 hPa 0,0 l/m 0 min 0 min 0 W/m 9,7 km/h (2 Bft) 97,83 %
22.11.2022 19:08 7,1 C 6,1 C 3,3 C 96 % 995,9 hPa 0,0 l/m 0 min 0 min 0 W/m 12,9 km/h (3 Bft) 95,74 %
22.11.2022 19:10 7,1 C 6,1 C 3,3 C 96 % 995,9 hPa 0,0 l/m 0 min 0 min 0 W/m 6,4 km/h (2 Bft) 95,74 %
22.11.2022 19:12 7,1 C 6,1 C 3,3 C 96 % 996,0 hPa 0,0 l/m 0 min 0 min 0 W/m 3,2 km/h (1 Bft) 97,87 %
22.11.2022 19:14 7,1 C 6,1 C 3,3 C 96 % 995,9 hPa 0,0 l/m 0 min 2 min 0 W/m 29,0 km/h (5 Bft) 97,87 %
22.11.2022 19:16 7,1 C 6,1 C 3,3 C 96 % 995,9 hPa 0,0 l/m 0 min 2 min 0 W/m 16,1 km/h (3 Bft) 97,87 %
22.11.2022 19:18 7,1 C 6,1 C 3,3 C 96 % 995,9 hPa 0,2 l/m 0 min 2 min 0 W/m 19,3 km/h (3 Bft) 97,83 %
22.11.2022 19:20 7,1 C 6,1 C 3,3 C 96 % 996,0 hPa 0,0 l/m 0 min 0 min 0 W/m 12,9 km/h (3 Bft) 97,87 %
22.11.2022 19:22 7,1 C 6,1 C 3,3 C 96 % 996,0 hPa 0,0 l/m 0 min 2 min 0 W/m 16,1 km/h (3 Bft) 95,74 %
22.11.2022 19:24 7,1 C 6,1 C 3,3 C 96 % 996,0 hPa 0,0 l/m 0 min 0 min 0 W/m 22,5 km/h (4 Bft) 95,74 %
22.11.2022 19:26 7,1 C 6,1 C 3,3 C 96 % 996,0 hPa 0,0 l/m 0 min 0 min 0 W/m 12,9 km/h (3 Bft) 97,87 %
22.11.2022 19:28 7,1 C 6,1 C 3,3 C 96 % 996,0 hPa 0,0 l/m 0 min 0 min 0 W/m 16,1 km/h (3 Bft) 97,87 %
22.11.2022 19:30 7,1 C 6,1 C 3,3 C 96 % 996,0 hPa 0,0 l/m 0 min 0 min 0 W/m 19,3 km/h (3 Bft) 100,00 %
22.11.2022 19:32 7,1 C 6,1 C 3,3 C 96 % 996,0 hPa 0,0 l/m 0 min 0 min 0 W/m 12,9 km/h (3 Bft) 100,00 %
22.11.2022 19:34 7,1 C 6,1 C 3,3 C 97 % 996,0 hPa 0,0 l/m 0 min 0 min 0 W/m 12,9 km/h (3 Bft) 100,00 %
22.11.2022 19:36 7,1 C 6,1 C 3,3 C 97 % 996,0 hPa 0,0 l/m 0 min 0 min 0 W/m 12,9 km/h (3 Bft) 97,87 %
22.11.2022 19:38 7,1 C 6,1 C 3,3 C 97 % 996,0 hPa 0,0 l/m 0 min 0 min 0 W/m 12,9 km/h (3 Bft) 100,00 %
22.11.2022 19:40 7,1 C 6,1 C 3,3 C 97 % 996,0 hPa 0,0 l/m 0 min 0 min 0 W/m 12,9 km/h (3 Bft) 97,87 %
22.11.2022 19:42 7,1 C 6,1 C 3,3 C 97 % 996,0 hPa 0,0 l/m 0 min 0 min 0 W/m 12,9 km/h (3 Bft) 100,00 %
22.11.2022 19:44 7,1 C 6,1 C 3,3 C 97 % 996,0 hPa 0,0 l/m 0 min 0 min 0 W/m 16,1 km/h (3 Bft) 100,00 %
22.11.2022 19:46 7,1 C 6,1 C 3,3 C 97 % 996,0 hPa 0,0 l/m 0 min 2 min 0 W/m 16,1 km/h (3 Bft) 100,00 %
22.11.2022 19:48 7,1 C 6,1 C 3,3 C 97 % 996,0 hPa 0,0 l/m 0 min 0 min 0 W/m 16,1 km/h (3 Bft) 97,87 %
22.11.2022 19:50 7,1 C 6,1 C 3,3 C 97 % 995,9 hPa 0,0 l/m 0 min 0 min 0 W/m 16,1 km/h (3 Bft) 97,87 %
22.11.2022 19:52 7,1 C 6,1 C 3,3 C 97 % 996,0 hPa 0,0 l/m 0 min 0 min 0 W/m 16,1 km/h (3 Bft) 100,00 %
22.11.2022 19:54 7,1 C 6,1 C 3,3 C 97 % 995,9 hPa 0,0 l/m 0 min 0 min 0 W/m 16,1 km/h (3 Bft) 97,87 %
22.11.2022 19:56 7,1 C 6,1 C 3,3 C 97 % 996,0 hPa 0,0 l/m 0 min 0 min 0 W/m 12,9 km/h (3 Bft) 97,87 %
22.11.2022 19:58 7,1 C 6,1 C 3,3 C 97 % 996,0 hPa 0,0 l/m 0 min 0 min 0 W/m 22,5 km/h (4 Bft) 100,00 %
22.11.2022 20:00 7,1 C 6,1 C 3,3 C 97 % 996,0 hPa 0,0 l/m 0 min 0 min 0 W/m 19,3 km/h (3 Bft) 97,87 %
22.11.2022 20:02 7,1 C 6,1 C 3,3 C 97 % 996,0 hPa 0,0 l/m 0 min 0 min 0 W/m 12,9 km/h (3 Bft) 97,87 %
22.11.2022 20:04 7,1 C 6,1 C 3,3 C 97 % 996,1 hPa 0,0 l/m 0 min 0 min 0 W/m 12,9 km/h (3 Bft) 97,87 %
22.11.2022 20:06 7,1 C 6,1 C 3,3 C 97 % 996,0 hPa 0,0 l/m 0 min 0 min 0 W/m 9,7 km/h (2 Bft) 97,83 %
22.11.2022 20:08 7,1 C 6,1 C 3,3 C 97 % 996,1 hPa 0,0 l/m 0 min 0 min 0 W/m 16,1 km/h (3 Bft) 97,87 %
22.11.2022 20:10 7,1 C 6,1 C 3,3 C 97 % 996,1 hPa 0,0 l/m 0 min 2 min 0 W/m 16,1 km/h (3 Bft) 97,87 %
22.11.2022 20:12 7,1 C 6,1 C 3,3 C 97 % 996,1 hPa 0,0 l/m 0 min 2 min 0 W/m 12,9 km/h (3 Bft) 97,87 %
22.11.2022 20:14 7,1 C 6,1 C 3,3 C 97 % 996,1 hPa 0,0 l/m 0 min 0 min 0 W/m 12,9 km/h (3 Bft) 97,87 %
22.11.2022 20:16 7,1 C 6,1 C 3,3 C 97 % 996,1 hPa 0,0 l/m 0 min 0 min 0 W/m 9,7 km/h (2 Bft) 97,83 %
22.11.2022 20:18 7,1 C 6,1 C 3,3 C 97 % 996,1 hPa 0,0 l/m 0 min 0 min 0 W/m 16,1 km/h (3 Bft) 97,87 %
22.11.2022 20:20 7,1 C 6,1 C 3,3 C 97 % 996,1 hPa 0,0 l/m 0 min 0 min 0 W/m 12,9 km/h (3 Bft) 95,74 %
22.11.2022 20:22 7,1 C 6,1 C 3,3 C 97 % 996,1 hPa 0,0 l/m 0 min 0 min 0 W/m 6,4 km/h (2 Bft) 97,87 %
22.11.2022 20:24 7,1 C 6,1 C 3,3 C 97 % 996,1 hPa 0,0 l/m 0 min 0 min 0 W/m 12,9 km/h (3 Bft) 97,87 %
22.11.2022 20:26 7,1 C 6,1 C 3,3 C 97 % 996,1 hPa 0,0 l/m 0 min 0 min 0 W/m 12,9 km/h (3 Bft) 97,87 %
22.11.2022 20:28 7,1 C 6,1 C 3,3 C 97 % 996,1 hPa 0,0 l/m 0 min 0 min 0 W/m 16,1 km/h (3 Bft) 97,83 %
22.11.2022 20:30 7,1 C 6,1 C 3,3 C 97 % 996,1 hPa 0,0 l/m 0 min 2 min 0 W/m 6,4 km/h (2 Bft) 93,62 %
22.11.2022 20:32 7,1 C 6,1 C 3,3 C 97 % 996,1 hPa 0,0 l/m 0 min 2 min 0 W/m 9,7 km/h (2 Bft) 97,87 %
22.11.2022 20:34 7,1 C 6,1 C 3,3 C 97 % 996,1 hPa 0,0 l/m 0 min 2 min 0 W/m 19,3 km/h (3 Bft) 93,62 %
22.11.2022 20:36 7,1 C 6,7 C 3,3 C 97 % 996,1 hPa 0,0 l/m 0 min 2 min 0 W/m 12,9 km/h (3 Bft) 93,62 %
22.11.2022 20:38 7,1 C 6,7 C 3,3 C 97 % 996,0 hPa 0,2 l/m 0 min 2 min 0 W/m 12,9 km/h (3 Bft) 97,87 %
22.11.2022 20:40 7,1 C 6,1 C 3,3 C 97 % 996,0 hPa 0,0 l/m 0 min 2 min 0 W/m 16,1 km/h (3 Bft) 97,83 %
22.11.2022 20:42 7,1 C 6,1 C 3,3 C 97 % 996,0 hPa 0,0 l/m 0 min 0 min 0 W/m 12,9 km/h (3 Bft) 97,87 %
22.11.2022 20:44 7,1 C 6,7 C 3,3 C 97 % 996,0 hPa 0,0 l/m 0 min 0 min 0 W/m 12,9 km/h (3 Bft) 91,49 %
22.11.2022 20:46 7,1 C 6,7 C 3,3 C 97 % 996,0 hPa 0,0 l/m 0 min 0 min 0 W/m 6,4 km/h (2 Bft) 97,87 %
22.11.2022 20:48 7,1 C 6,7 C 3,3 C 97 % 996,0 hPa 0,0 l/m 0 min 0 min 0 W/m 16,1 km/h (3 Bft) 97,87 %
22.11.2022 20:50 7,1 C 6,7 C 3,3 C 97 % 996,1 hPa 0,0 l/m 0 min 0 min 0 W/m 6,4 km/h (2 Bft) 95,74 %
22.11.2022 20:52 7,1 C 6,7 C 3,3 C 97 % 996,0 hPa 0,0 l/m 0 min 0 min 0 W/m 12,9 km/h (3 Bft) 97,83 %
22.11.2022 20:54 7,1 C 6,7 C 3,3 C 97 % 996,0 hPa 0,0 l/m 0 min 0 min 0 W/m 12,9 km/h (3 Bft) 97,87 %
22.11.2022 20:56 7,1 C 6,7 C 3,3 C 97 % 996,0 hPa 0,0 l/m 0 min 0 min 0 W/m 6,4 km/h (2 Bft) 97,87 %
22.11.2022 20:58 7,1 C 6,7 C 3,3 C 97 % 996,1 hPa 0,0 l/m 0 min 0 min 0 W/m 6,4 km/h (2 Bft) 97,87 %
22.11.2022 21:00 7,1 C 6,7 C 3,3 C 97 % 996,1 hPa 0,0 l/m 0 min 0 min 0 W/m 6,4 km/h (2 Bft) 97,87 %
22.11.2022 21:02 7,1 C 6,7 C 3,3 C 97 % 996,1 hPa 0,0 l/m 0 min 0 min 0 W/m 12,9 km/h (3 Bft) 97,87 %
22.11.2022 21:04 7,1 C 6,7 C 3,3 C 97 % 996,1 hPa 0,0 l/m 0 min 0 min 0 W/m 12,9 km/h (3 Bft) 97,62 %
22.11.2022 21:06 7,1 C 6,7 C 3,3 C 97 % 996,2 hPa 0,0 l/m 0 min 0 min 0 W/m 12,9 km/h (3 Bft) 100,00 %
22.11.2022 21:08 7,1 C 6,7 C 3,3 C 97 % 996,1 hPa 0,0 l/m 0 min 0 min 0 W/m 12,9 km/h (3 Bft) 97,87 %
22.11.2022 21:10 7,1 C 6,7 C 3,3 C 97 % 996,1 hPa 0,0 l/m 0 min 2 min 0 W/m 12,9 km/h (3 Bft) 97,87 %
22.11.2022 21:12 7,1 C 6,7 C 3,3 C 97 % 996,1 hPa 0,0 l/m 0 min 0 min 0 W/m 12,9 km/h (3 Bft) 97,87 %
22.11.2022 21:14 7,1 C 6,7 C 3,3 C 97 % 996,1 hPa 0,0 l/m 0 min 0 min 0 W/m 6,4 km/h (2 Bft) 100,00 %
22.11.2022 21:16 7,1 C 6,7 C 3,3 C 97 % 996,1 hPa 0,0 l/m 0 min 2 min 0 W/m 3,2 km/h (1 Bft) 100,00 %
22.11.2022 21:18 7,1 C 6,7 C 3,3 C 97 % 996,1 hPa 0,0 l/m 0 min 2 min 0 W/m 6,4 km/h (2 Bft) 100,00 %
22.11.2022 21:20 7,1 C 6,7 C 3,3 C 97 % 996,1 hPa 0,0 l/m 0 min 0 min 0 W/m 6,4 km/h (2 Bft) 100,00 %
22.11.2022 21:22 7,1 C 6,7 C 3,9 C 97 % 996,1 hPa 0,0 l/m 0 min 0 min 0 W/m 3,2 km/h (1 Bft) 97,14 %
22.11.2022 21:24 7,2 C 6,7 C 3,9 C 97 % 996,2 hPa 0,0 l/m 0 min 0 min 0 W/m 6,4 km/h (2 Bft) 100,00 %
22.11.2022 21:26 7,2 C 6,7 C 3,9 C 97 % 996,2 hPa 0,0 l/m 0 min 0 min 0 W/m 16,1 km/h (3 Bft) 100,00 %
22.11.2022 21:28 7,2 C 6,7 C 3,9 C 97 % 996,2 hPa 0,0 l/m 0 min 0 min 0 W/m 9,7 km/h (2 Bft) 97,87 %
22.11.2022 21:30 7,2 C 6,7 C 3,9 C 97 % 996,2 hPa 0,0 l/m 0 min 0 min 0 W/m 12,9 km/h (3 Bft) 100,00 %
22.11.2022 21:32 7,2 C 6,7 C 3,9 C 97 % 996,2 hPa 0,0 l/m 0 min 0 min 0 W/m 6,4 km/h (2 Bft) 100,00 %
22.11.2022 21:34 7,2 C 6,7 C 3,9 C 97 % 996,2 hPa 0,0 l/m 0 min 0 min 0 W/m 12,9 km/h (3 Bft) 97,14 %
22.11.2022 21:36 7,2 C 6,7 C 3,9 C 97 % 996,4 hPa 0,0 l/m 0 min 2 min 0 W/m 12,9 km/h (3 Bft) 98,28 %
22.11.2022 21:38 7,3 C 6,7 C 3,9 C 97 % 996,4 hPa 0,0 l/m 0 min 0 min 0 W/m 3,2 km/h (1 Bft) 97,87 %
22.11.2022 21:40 7,3 C 6,7 C 3,9 C 97 % 996,4 hPa 0,0 l/m 0 min 0 min 0 W/m 3,2 km/h (1 Bft) 97,87 %
22.11.2022 21:42 7,3 C 6,7 C 3,9 C 97 % 996,4 hPa 0,0 l/m 0 min 0 min 0 W/m 6,4 km/h (2 Bft) 95,74 %
22.11.2022 21:44 7,3 C 6,7 C 3,9 C 97 % 996,4 hPa 0,0 l/m 0 min 0 min 0 W/m 3,2 km/h (1 Bft) 97,87 %
22.11.2022 21:46 7,3 C 6,7 C 3,9 C 97 % 996,4 hPa 0,0 l/m 0 min 0 min 0 W/m 6,4 km/h (2 Bft) 93,48 %
22.11.2022 21:48 7,3 C 6,7 C 3,9 C 97 % 996,3 hPa 0,0 l/m 0 min 0 min 0 W/m 9,7 km/h (2 Bft) 100,00 %
22.11.2022 21:50 7,3 C 6,7 C 3,9 C 97 % 996,4 hPa 0,0 l/m 0 min 0 min 0 W/m 6,4 km/h (2 Bft) 96,55 %
22.11.2022 21:52 7,3 C 6,7 C 3,9 C 97 % 996,4 hPa 0,0 l/m 0 min 0 min 0 W/m 12,9 km/h (3 Bft) 97,87 %
22.11.2022 21:54 7,3 C 6,7 C 3,9 C 97 % 996,4 hPa 0,0 l/m 0 min 0 min 0 W/m 6,4 km/h (2 Bft) 97,14 %
22.11.2022 21:56 7,4 C 6,7 C 3,9 C 97 % 996,3 hPa 0,0 l/m 0 min 0 min 0 W/m 12,9 km/h (3 Bft) 94,92 %
22.11.2022 21:58 7,4 C 6,7 C 3,9 C 97 % 996,4 hPa 0,0 l/m 0 min 0 min 0 W/m 9,7 km/h (2 Bft) 95,65 %
22.11.2022 22:00 7,4 C 7,2 C 3,9 C 97 % 996,4 hPa 0,0 l/m 0 min 0 min 0 W/m 6,4 km/h (2 Bft) 95,74 %
22.11.2022 22:02 7,4 C 7,2 C 3,9 C 97 % 996,4 hPa 0,0 l/m 0 min 0 min 0 W/m 9,7 km/h (2 Bft) 93,62 %
22.11.2022 22:04 7,4 C 7,2 C 3,9 C 97 % 996,4 hPa 0,0 l/m 0 min 0 min 0 W/m 12,9 km/h (3 Bft) 91,49 %
22.11.2022 22:06 7,4 C 7,2 C 3,9 C 97 % 996,4 hPa 0,0 l/m 0 min 0 min 0 W/m 6,4 km/h (2 Bft) 95,74 %
22.11.2022 22:08 7,4 C 7,2 C 3,9 C 97 % 996,4 hPa 0,0 l/m 0 min 0 min 0 W/m 6,4 km/h (2 Bft) 95,74 %
22.11.2022 22:10 7,4 C 7,2 C 3,9 C 97 % 996,5 hPa 0,0 l/m 0 min 0 min 0 W/m 3,2 km/h (1 Bft) 95,65 %
22.11.2022 22:12 7,5 C 7,2 C 3,9 C 97 % 996,4 hPa 0,0 l/m 0 min 2 min 0 W/m 16,1 km/h (3 Bft) 95,74 %
22.11.2022 22:14 7,5 C 7,2 C 3,9 C 97 % 996,4 hPa 0,2 l/m 0 min 2 min 0 W/m 6,4 km/h (2 Bft) 95,74 %
22.11.2022 22:16 7,5 C 7,2 C 3,9 C 97 % 996,4 hPa 0,0 l/m 0 min 2 min 0 W/m 9,7 km/h (2 Bft) 94,29 %
22.11.2022 22:18 7,6 C 7,2 C 3,9 C 97 % 996,3 hPa 0,0 l/m 0 min 2 min 0 W/m 6,4 km/h (2 Bft) 95,74 %
22.11.2022 22:20 7,5 C 7,2 C 3,9 C 97 % 996,4 hPa 0,0 l/m 0 min 0 min 0 W/m 3,2 km/h (1 Bft) 95,74 %
22.11.2022 22:22 7,6 C 7,2 C 3,9 C 97 % 996,3 hPa 0,0 l/m 0 min 0 min 0 W/m 6,4 km/h (2 Bft) 95,74 %
22.11.2022 22:24 7,6 C 7,2 C 3,9 C 97 % 996,4 hPa 0,0 l/m 0 min 0 min 0 W/m 12,9 km/h (3 Bft) 91,49 %
22.11.2022 22:26 7,6 C 7,2 C 3,9 C 97 % 996,4 hPa 0,0 l/m 0 min 0 min 0 W/m 12,9 km/h (3 Bft) 95,65 %
22.11.2022 22:28 7,6 C 7,2 C 3,9 C 97 % 996,4 hPa 0,0 l/m 0 min 0 min 0 W/m 12,9 km/h (3 Bft) 100,00 %
22.11.2022 22:30 7,6 C 7,2 C 3,9 C 96 % 996,4 hPa 0,0 l/m 0 min 0 min 0 W/m 6,4 km/h (2 Bft) 97,87 %
22.11.2022 22:32 7,6 C 7,2 C 3,9 C 96 % 996,4 hPa 0,0 l/m 0 min 0 min 0 W/m 12,9 km/h (3 Bft) 98,31 %
22.11.2022 22:34 7,6 C 7,2 C 3,9 C 96 % 996,5 hPa 0,0 l/m 0 min 0 min 0 W/m 12,9 km/h (3 Bft) 97,14 %
22.11.2022 22:36 7,6 C 7,2 C 3,9 C 96 % 996,4 hPa 0,0 l/m 0 min 0 min 0 W/m 12,9 km/h (3 Bft) 98,28 %
22.11.2022 22:38 7,6 C 7,2 C 3,9 C 96 % 996,5 hPa 0,0 l/m 0 min 0 min 0 W/m 12,9 km/h (3 Bft) 94,29 %
22.11.2022 22:40 7,6 C 7,2 C 3,9 C 96 % 996,4 hPa 0,0 l/m 0 min 0 min 0 W/m 12,9 km/h (3 Bft) 52,38 %
22.11.2022 22:42 7,6 C 7,2 C 3,9 C 96 % 996,5 hPa 0,0 l/m 0 min 0 min 0 W/m 12,9 km/h (3 Bft) 100,00 %
22.11.2022 22:44 7,6 C 7,2 C 3,9 C 96 % 996,5 hPa 0,0 l/m 0 min 0 min 0 W/m 6,4 km/h (2 Bft) 97,87 %
22.11.2022 22:46 7,6 C 7,2 C 3,9 C 96 % 996,4 hPa 0,0 l/m 0 min 0 min 0 W/m 16,1 km/h (3 Bft) 97,87 %
22.11.2022 22:48 7,6 C 7,2 C 3,9 C 96 % 996,5 hPa 0,0 l/m 0 min 0 min 0 W/m 6,4 km/h (2 Bft) 97,87 %
22.11.2022 22:50 7,7 C 7,2 C 3,9 C 96 % 996,5 hPa 0,0 l/m 0 min 2 min 0 W/m 16,1 km/h (3 Bft) 100,00 %
22.11.2022 22:52 7,7 C 7,2 C 3,9 C 96 % 996,4 hPa 0,0 l/m 0 min 2 min 0 W/m 16,1 km/h (3 Bft) 97,87 %
22.11.2022 22:54 7,7 C 7,2 C 3,9 C 96 % 996,4 hPa 0,0 l/m 0 min 2 min 0 W/m 6,4 km/h (2 Bft) 97,87 %
22.11.2022 22:56 7,7 C 7,2 C 3,9 C 96 % 996,4 hPa 0,0 l/m 0 min 2 min 0 W/m 16,1 km/h (3 Bft) 95,74 %
22.11.2022 22:58 7,7 C 7,2 C 3,9 C 96 % 996,4 hPa 0,0 l/m 0 min 0 min 0 W/m 25,7 km/h (4 Bft) 95,74 %
22.11.2022 23:00 7,7 C 7,2 C 3,9 C 96 % 996,4 hPa 0,0 l/m 0 min 0 min 0 W/m 12,9 km/h (3 Bft) 97,87 %
22.11.2022 23:02 7,7 C 7,2 C 3,9 C 96 % 996,5 hPa 0,0 l/m 0 min 0 min 0 W/m 16,1 km/h (3 Bft) 97,83 %
22.11.2022 23:04 7,8 C 7,2 C 3,9 C 96 % 996,5 hPa 0,0 l/m 0 min 0 min 0 W/m 12,9 km/h (3 Bft) 94,00 %
22.11.2022 23:06 7,8 C 7,2 C 3,9 C 96 % 996,5 hPa 0,0 l/m 0 min 0 min 0 W/m 6,4 km/h (2 Bft) 96,61 %
22.11.2022 23:08 7,8 C 7,2 C 3,9 C 96 % 996,5 hPa 0,0 l/m 0 min 0 min 0 W/m 16,1 km/h (3 Bft) 97,14 %
22.11.2022 23:10 7,8 C 7,2 C 3,9 C 96 % 996,5 hPa 0,0 l/m 0 min 0 min 0 W/m 16,1 km/h (3 Bft) 97,87 %
22.11.2022 23:12 7,8 C 7,2 C 3,9 C 96 % 996,6 hPa 0,0 l/m 0 min 0 min 0 W/m 6,4 km/h (2 Bft) 97,87 %
22.11.2022 23:14 7,8 C 7,2 C 3,9 C 96 % 996,6 hPa 0,0 l/m 0 min 0 min 0 W/m 12,9 km/h (3 Bft) 97,83 %
22.11.2022 23:16 7,8 C 7,2 C 3,9 C 95 % 996,5 hPa 0,0 l/m 0 min 0 min 0 W/m 12,9 km/h (3 Bft) 97,87 %
22.11.2022 23:18 7,8 C 7,2 C 3,9 C 95 % 996,6 hPa 0,0 l/m 0 min 0 min 0 W/m 9,7 km/h (2 Bft) 97,87 %
22.11.2022 23:20 7,8 C 7,2 C 3,9 C 95 % 996,6 hPa 0,0 l/m 0 min 0 min 0 W/m 16,1 km/h (3 Bft) 97,87 %
22.11.2022 23:22 7,8 C 7,2 C 3,9 C 95 % 996,6 hPa 0,0 l/m 0 min 0 min 0 W/m 6,4 km/h (2 Bft) 97,87 %
22.11.2022 23:24 7,8 C 7,2 C 3,9 C 95 % 996,6 hPa 0,0 l/m 0 min 0 min 0 W/m 6,4 km/h (2 Bft) 95,74 %
22.11.2022 23:26 7,8 C 7,2 C 3,9 C 95 % 996,6 hPa 0,0 l/m 0 min 0 min 0 W/m 3,2 km/h (1 Bft) 95,65 %
22.11.2022 23:28 7,8 C 7,2 C 3,9 C 95 % 996,7 hPa 0,0 l/m 0 min 0 min 0 W/m 6,4 km/h (2 Bft) 93,62 %
22.11.2022 23:30 7,8 C 7,2 C 3,9 C 95 % 996,7 hPa 0,0 l/m 0 min 0 min 0 W/m 12,9 km/h (3 Bft) 97,87 %
22.11.2022 23:32 7,9 C 7,2 C 3,9 C 95 % 996,6 hPa 0,0 l/m 0 min 0 min 0 W/m 12,9 km/h (3 Bft) 100,00 %
22.11.2022 23:34 7,9 C 7,2 C 3,9 C 95 % 996,7 hPa 0,0 l/m 0 min 0 min 0 W/m 6,4 km/h (2 Bft) 100,00 %
22.11.2022 23:36 7,9 C 7,2 C 4,4 C 95 % 996,7 hPa 0,0 l/m 0 min 0 min 0 W/m 6,4 km/h (2 Bft) 100,00 %
22.11.2022 23:38 7,9 C 7,2 C 4,4 C 95 % 996,7 hPa 0,0 l/m 0 min 0 min 0 W/m 6,4 km/h (2 Bft) 100,00 %
22.11.2022 23:40 7,9 C 7,2 C 4,4 C 95 % 996,8 hPa 0,0 l/m 0 min 0 min 0 W/m 22,5 km/h (4 Bft) 97,87 %
22.11.2022 23:42 8,0 C 7,8 C 4,4 C 95 % 996,8 hPa 0,0 l/m 0 min 0 min 0 W/m 19,3 km/h (3 Bft) 97,87 %
22.11.2022 23:44 8,0 C 7,8 C 4,4 C 95 % 996,9 hPa 0,0 l/m 0 min 0 min 0 W/m 29,0 km/h (5 Bft) 100,00 %
22.11.2022 23:46 8,1 C 7,8 C 4,4 C 95 % 996,9 hPa 0,0 l/m 0 min 0 min 0 W/m 16,1 km/h (3 Bft) 97,87 %
22.11.2022 23:48 8,1 C 7,8 C 4,4 C 95 % 996,9 hPa 0,0 l/m 0 min 0 min 0 W/m 12,9 km/h (3 Bft) 97,83 %
22.11.2022 23:50 8,1 C 7,8 C 4,4 C 95 % 996,9 hPa 0,0 l/m 0 min 0 min 0 W/m 19,3 km/h (3 Bft) 97,87 %
22.11.2022 23:52 8,2 C 7,8 C 4,4 C 95 % 996,9 hPa 0,0 l/m 0 min 0 min 0 W/m 19,3 km/h (3 Bft) 95,74 %
22.11.2022 23:54 8,2 C 7,8 C 4,4 C 95 % 996,9 hPa 0,0 l/m 0 min 0 min 0 W/m 16,1 km/h (3 Bft) 97,87 %
22.11.2022 23:56 8,2 C 7,8 C 4,4 C 95 % 996,9 hPa 0,0 l/m 0 min 0 min 0 W/m 32,2 km/h (5 Bft) 97,87 %
22.11.2022 23:58 8,2 C 7,8 C 4,4 C 94 % 997,0 hPa 0,0 l/m 0 min 0 min 0 W/m 16,1 km/h (3 Bft) 97,87 %
_ Min-Zeit 07:30 06:16 05:36 14:20 01:00 - - - - 02:36 17:26
Minimum _ 4,1 C 3,3 C 1,1 C 80 % 992,4 hPa - - - - 0,0 km/h (0 Bft) 51,22 %
_ Max-Zeit 13:32 13:12 12:30 19:34 23:58 00:44 09:34 00:36 10:20 16:40 00:07
Maximum _ 8,7 C 8,9 C 5,0 C 97 % 997,0 hPa 0,2 l/m 2 min 2 min 323 W/m 45,1 km/h
SW (6 Bft)
100,00 %
Durchschnitt _ 6,7 C 6,1 C 3,0 C 92 % 994,7 hPa #1,8 l/m #54 min. #1:46 h 72 W/m 12,4 km/h (3 Bft) 96,83 %
© 2022 W. Hausmann